1000 dernières valeurs brutes
Date Temp Humidity Gust Pressure Rain
22 juin 21:33 13.4°C 95% 0.0 km/h SE 1015.3 hPa 0 mm
22 juin 21:32 13.5°C 95% 0.0 km/h S 1015.3 hPa 0 mm
22 juin 21:31 13.6°C 95% 0.0 km/h SE 1015.2 hPa 0 mm
22 juin 21:30 13.6°C 95% 0.0 km/h SSE 1015.3 hPa 0 mm
22 juin 21:29 13.6°C 95% 0.0 km/h SSE 1015.3 hPa 0 mm
22 juin 21:28 13.7°C 95% 0.0 km/h SE 1015.3 hPa 0 mm
22 juin 21:27 13.7°C 95% 0.0 km/h ENE 1015.4 hPa 0 mm
22 juin 21:26 13.7°C 95% 0.0 km/h E 1015.4 hPa 0 mm
22 juin 21:25 13.8°C 95% 0.0 km/h ESE 1015.4 hPa 0 mm
22 juin 21:24 13.8°C 95% 0.0 km/h SSE 1015.3 hPa 0 mm
22 juin 21:23 13.8°C 95% 0.0 km/h SSO 1015.3 hPa 0 mm
22 juin 21:22 13.9°C 95% 0.0 km/h SE 1015.3 hPa 0 mm
22 juin 21:21 13.9°C 95% 0.0 km/h SSE 1015.4 hPa 0 mm
22 juin 21:20 14.0°C 95% 0.0 km/h SE 1015.4 hPa 0 mm
22 juin 21:19 14.1°C 95% 0.0 km/h SSE 1015.4 hPa 0 mm
22 juin 21:18 14.2°C 95% 0.0 km/h E 1015.4 hPa 0 mm
22 juin 21:17 14.2°C 95% 0.0 km/h ESE 1015.4 hPa 0 mm
22 juin 21:16 14.3°C 95% 0.0 km/h SSE 1015.4 hPa 0 mm
22 juin 21:15 14.3°C 95% 0.0 km/h S 1015.4 hPa 0 mm
22 juin 21:14 14.4°C 95% 0.0 km/h SE 1015.4 hPa 0 mm
22 juin 21:13 14.4°C 95% 0.0 km/h SSE 1015.4 hPa 0 mm
22 juin 21:12 14.5°C 95% 0.0 km/h ENE 1015.4 hPa 0 mm
22 juin 21:11 14.5°C 95% 0.0 km/h S 1015.3 hPa 0 mm
22 juin 21:10 14.5°C 95% 0.0 km/h ESE 1015.3 hPa 0 mm
22 juin 21:09 14.5°C 95% 0.0 km/h ESE 1015.3 hPa 0 mm
22 juin 21:08 14.4°C 95% 0.0 km/h NNE 1015.2 hPa 0 mm
22 juin 21:07 14.4°C 95% 0.0 km/h N 1015.3 hPa 0 mm
22 juin 21:06 14.4°C 95% 0.0 km/h N 1015.2 hPa 0 mm
22 juin 21:05 14.4°C 94% 0.0 km/h N 1015.2 hPa 0 mm
22 juin 21:04 14.4°C 94% 0.0 km/h N 1015.2 hPa 0 mm
22 juin 21:03 14.4°C 94% 0.0 km/h N 1015.3 hPa 0 mm
22 juin 21:02 14.4°C 94% 0.0 km/h N 1015.3 hPa 0 mm
22 juin 21:01 14.5°C 95% 0.0 km/h NNE 1015.4 hPa 0 mm
22 juin 21:00 14.5°C 95% 0.0 km/h NNE 1015.3 hPa 0 mm
22 juin 20:59 14.5°C 95% 0.0 km/h N 1015.2 hPa 0 mm
22 juin 20:58 14.5°C 95% 0.0 km/h NNE 1015.2 hPa 0 mm
22 juin 20:57 14.5°C 95% 0.0 km/h NNE 1015.2 hPa 0 mm
22 juin 20:56 14.5°C 95% 0.0 km/h NNE 1015.2 hPa 0 mm
22 juin 20:55 14.4°C 95% 0.0 km/h NNE 1015.2 hPa 0 mm
22 juin 20:54 14.4°C 95% 0.0 km/h NNE 1015.2 hPa 0 mm
22 juin 20:53 14.4°C 95% 0.0 km/h NNE 1015.2 hPa 0 mm
22 juin 20:52 14.4°C 95% 0.0 km/h NNE 1015.1 hPa 0 mm
22 juin 20:51 14.4°C 95% 0.0 km/h NNE 1015.1 hPa 0 mm
22 juin 20:50 14.4°C 95% 0.0 km/h NNE 1015.0 hPa 0 mm
22 juin 20:49 14.4°C 95% 0.0 km/h NE 1015.1 hPa 0 mm
22 juin 20:48 14.4°C 95% 0.0 km/h NNE 1015.2 hPa 0 mm
22 juin 20:47 14.4°C 95% 0.0 km/h NE 1015.2 hPa 0 mm
22 juin 20:46 14.4°C 95% 0.0 km/h NNE 1015.2 hPa 0 mm
22 juin 20:45 14.4°C 95% 0.0 km/h NE 1015.0 hPa 0 mm
22 juin 20:44 14.5°C 95% 0.0 km/h NE 1015.0 hPa 0 mm
22 juin 20:43 14.5°C 95% 0.0 km/h NE 1015.0 hPa 0 mm
22 juin 20:42 14.5°C 95% 0.0 km/h NE 1014.9 hPa 0 mm
22 juin 20:41 14.3°C 95% 0.0 km/h E 1014.9 hPa 0 mm
22 juin 20:40 14.3°C 95% 0.0 km/h NE 1014.9 hPa 0 mm
22 juin 20:39 14.2°C 95% 0.0 km/h NE 1014.9 hPa 0 mm
22 juin 20:38 14.2°C 95% 0.0 km/h NNE 1014.9 hPa 0 mm
22 juin 20:37 14.2°C 95% 0.0 km/h NNE 1014.9 hPa 0 mm
22 juin 20:36 14.2°C 95% 0.0 km/h NE 1014.9 hPa 0 mm
22 juin 20:35 14.2°C 95% 0.0 km/h NE 1014.9 hPa 0 mm
22 juin 20:34 14.2°C 95% 0.0 km/h NE 1014.9 hPa 0 mm
22 juin 20:33 14.1°C 95% 0.0 km/h ENE 1014.8 hPa 0.14 mm
22 juin 20:32 14.2°C 95% 0.0 km/h ENE 1014.7 hPa 0 mm
22 juin 20:31 14.2°C 95% 0.0 km/h NE 1014.8 hPa 0 mm
22 juin 20:30 14.2°C 95% 0.0 km/h NE 1014.8 hPa 0 mm
22 juin 20:29 14.2°C 95% 0.0 km/h ENE 1014.7 hPa 0 mm
22 juin 20:28 14.2°C 95% 0.0 km/h NE 1014.7 hPa 0 mm
22 juin 20:27 14.2°C 95% 0.0 km/h NE 1014.8 hPa 0 mm
22 juin 20:26 14.2°C 95% 0.0 km/h ENE 1014.8 hPa 0 mm
22 juin 20:25 14.2°C 95% 0.0 km/h ENE 1014.9 hPa 0.14 mm
22 juin 20:24 14.2°C 95% 0.0 km/h NE 1015.0 hPa 0 mm
22 juin 20:23 14.2°C 95% 0.0 km/h ENE 1015.0 hPa 0 mm
22 juin 20:22 14.2°C 95% 0.0 km/h NE 1014.9 hPa 0 mm
22 juin 20:21 14.1°C 95% 0.0 km/h ENE 1014.8 hPa 0 mm
22 juin 20:20 14.1°C 95% 0.0 km/h ENE 1014.8 hPa 0 mm
22 juin 20:19 14.1°C 95% 0.0 km/h NE 1014.8 hPa 0.14 mm
22 juin 20:18 14.1°C 95% 0.0 km/h NNE 1014.8 hPa 0 mm
22 juin 20:17 14.1°C 95% 0.0 km/h NE 1014.9 hPa 0 mm
22 juin 20:16 14.1°C 95% 0.0 km/h NE 1015.0 hPa 0 mm
22 juin 20:15 14.1°C 95% 0.0 km/h NNE 1015.1 hPa 0 mm
22 juin 20:14 14.1°C 95% 0.0 km/h NNE 1015.3 hPa 0 mm
22 juin 20:13 14.1°C 95% 0.0 km/h NE 1015.4 hPa 0.14 mm
22 juin 20:12 14.0°C 95% 0.0 km/h NE 1015.6 hPa 0 mm
22 juin 20:11 14.1°C 95% 0.0 km/h NE 1015.6 hPa 0 mm
22 juin 20:10 14.1°C 95% 0.0 km/h NNE 1015.7 hPa 0 mm
22 juin 20:09 14.1°C 95% 0.0 km/h NE 1015.7 hPa 0 mm
22 juin 20:08 14.0°C 95% 0.0 km/h NE 1015.7 hPa 0 mm
22 juin 20:07 14.0°C 95% 0.0 km/h N 1015.7 hPa 0 mm
22 juin 20:06 14.0°C 95% 0.0 km/h N 1015.8 hPa 0 mm
22 juin 20:05 14.0°C 95% 0.0 km/h N 1015.8 hPa 0.14 mm
22 juin 20:04 14.0°C 95% 0.0 km/h N 1015.8 hPa 0 mm
22 juin 20:03 14.0°C 95% 0.0 km/h NE 1015.7 hPa 0.14 mm
22 juin 20:02 14.0°C 95% 0.0 km/h NNE 1015.7 hPa 0 mm
22 juin 20:01 14.0°C 95% 0.0 km/h NNE 1015.6 hPa 0.14 mm
22 juin 20:00 14.0°C 95% 0.0 km/h NNE 1015.5 hPa 0 mm
22 juin 19:59 14.0°C 95% 0.0 km/h NNE 1015.3 hPa 0 mm
22 juin 19:58 14.0°C 95% 0.0 km/h NNE 1015.2 hPa 0 mm
22 juin 19:57 14.0°C 95% 0.0 km/h NE 1015.2 hPa 0 mm
22 juin 19:56 14.0°C 95% 0.0 km/h N 1015.3 hPa 0 mm
22 juin 19:55 14.0°C 95% 0.0 km/h NNE 1015.3 hPa 0 mm
22 juin 19:54 14.0°C 95% 0.0 km/h N 1015.2 hPa 0 mm
22 juin 19:53 14.0°C 95% 0.0 km/h NE 1015.3 hPa 0.14 mm
22 juin 19:52 14.0°C 94% 0.0 km/h N 1015.2 hPa 0 mm
22 juin 19:51 14.0°C 94% 0.0 km/h NE 1015.3 hPa 0 mm
22 juin 19:50 14.0°C 94% 0.0 km/h NE 1015.3 hPa 0 mm
22 juin 19:49 14.0°C 94% 0.0 km/h N 1015.3 hPa 0 mm
22 juin 19:48 14.0°C 94% 0.0 km/h NE 1015.3 hPa 0.14 mm
22 juin 19:47 14.0°C 94% 0.0 km/h N 1015.3 hPa 0 mm
22 juin 19:46 14.0°C 94% 0.0 km/h N 1015.2 hPa 0 mm
22 juin 19:45 14.0°C 94% 0.0 km/h N 1015.2 hPa 0.14 mm
22 juin 19:44 14.0°C 94% 0.0 km/h NNE 1015.2 hPa 0 mm
22 juin 19:43 14.0°C 94% 0.0 km/h NNE 1015.2 hPa 0.14 mm
22 juin 19:42 14.0°C 94% 0.0 km/h NE 1015.2 hPa 0 mm
22 juin 19:41 14.0°C 94% 0.0 km/h N 1015.1 hPa 0 mm
22 juin 19:40 14.0°C 94% 0.0 km/h NE 1015.1 hPa 0.14 mm
22 juin 19:39 14.0°C 94% 0.0 km/h NE 1015.1 hPa 0 mm
22 juin 19:38 14.1°C 94% 0.0 km/h N 1015.1 hPa 0.14 mm
22 juin 19:37 14.1°C 94% 0.0 km/h NE 1015.1 hPa 0.14 mm
22 juin 19:36 14.1°C 94% 0.0 km/h NNE 1015.0 hPa 0 mm
22 juin 19:35 14.1°C 94% 0.0 km/h NE 1015.0 hPa 0 mm
22 juin 19:34 14.1°C 94% 0.0 km/h ENE 1015.0 hPa 0.14 mm
22 juin 19:33 14.1°C 94% 0.0 km/h NNE 1015.0 hPa 0.14 mm
22 juin 19:32 14.1°C 94% 0.0 km/h ENE 1014.9 hPa 0.14 mm
22 juin 19:31 14.2°C 94% 0.0 km/h ENE 1014.9 hPa 0 mm
22 juin 19:30 14.2°C 94% 0.0 km/h NE 1014.9 hPa 0.14 mm
22 juin 19:29 14.2°C 94% 0.0 km/h E 1014.8 hPa 0 mm
22 juin 19:28 14.2°C 94% 0.0 km/h ENE 1014.8 hPa 0.14 mm
22 juin 19:27 14.2°C 94% 0.0 km/h ENE 1014.8 hPa 0.14 mm
22 juin 19:26 14.3°C 93% 0.0 km/h NE 1014.8 hPa 0.14 mm
22 juin 19:25 14.3°C 93% 0.0 km/h E 1014.8 hPa 0.27 mm
22 juin 19:24 14.3°C 93% 0.0 km/h NE 1014.7 hPa 0.14 mm
22 juin 19:23 14.4°C 93% 0.0 km/h NE 1014.7 hPa 0.41 mm
22 juin 19:22 14.5°C 93% 0.0 km/h NNE 1014.6 hPa 0.27 mm
22 juin 19:21 14.5°C 93% 0.0 km/h NE 1014.6 hPa 0.27 mm
22 juin 19:20 14.6°C 93% 0.0 km/h NE 1014.5 hPa 0.41 mm
22 juin 19:19 14.6°C 93% 0.0 km/h NE 1014.6 hPa 0.54 mm
22 juin 19:18 14.6°C 93% 0.0 km/h NE 1014.7 hPa 0.54 mm
22 juin 19:17 14.8°C 93% 0.0 km/h NE 1014.7 hPa 0.68 mm
22 juin 19:16 14.8°C 93% 0.0 km/h NE 1014.7 hPa 0.68 mm
22 juin 19:15 15.2°C 92% 0.0 km/h E 1014.7 hPa 0.54 mm
22 juin 19:14 15.2°C 92% 0.0 km/h NNE 1014.7 hPa 0.41 mm
22 juin 19:13 15.4°C 93% 0.0 km/h NE 1014.6 hPa 0.27 mm
22 juin 19:12 15.7°C 92% 0.0 km/h NE 1014.5 hPa 0.27 mm
22 juin 19:11 15.7°C 92% 0.0 km/h E 1014.5 hPa 0.41 mm
22 juin 19:10 15.7°C 92% 0.0 km/h ESE 1014.5 hPa 0.41 mm
22 juin 19:09 15.8°C 92% 0.0 km/h NE 1014.6 hPa 0.41 mm
22 juin 19:08 16.0°C 91% 0.0 km/h NNE 1014.5 hPa 0.27 mm
22 juin 19:07 16.0°C 91% 0.0 km/h NNE 1014.3 hPa 0.14 mm
22 juin 19:06 16.1°C 91% 0.0 km/h N 1014.3 hPa 0 mm
22 juin 19:05 16.1°C 91% 0.0 km/h NNE 1014.2 hPa 0.14 mm
22 juin 19:04 16.1°C 91% 0.0 km/h NE 1014.1 hPa 0.14 mm
22 juin 19:03 16.3°C 90% 0.0 km/h NNE 1014.0 hPa 0 mm
22 juin 19:02 16.3°C 90% 0.0 km/h N 1014.0 hPa 0.14 mm
22 juin 19:01 16.3°C 90% 0.0 km/h N 1013.9 hPa 0 mm
22 juin 19:00 16.3°C 90% 0.0 km/h NNE 1013.8 hPa 0 mm
22 juin 18:59 16.4°C 90% 0.0 km/h NNE 1013.8 hPa 0 mm
22 juin 18:58 16.4°C 90% 0.0 km/h NNE 1013.8 hPa 0 mm
22 juin 18:57 16.4°C 90% 0.0 km/h NNE 1013.8 hPa 0 mm
22 juin 18:56 16.4°C 90% 0.0 km/h NNE 1013.8 hPa 0 mm
22 juin 18:55 16.4°C 90% 0.0 km/h NNE 1013.8 hPa 0 mm
22 juin 18:54 16.4°C 90% 0.0 km/h NNE 1013.7 hPa 0 mm
22 juin 18:53 16.4°C 90% 0.0 km/h NE 1013.7 hPa 0 mm
22 juin 18:52 16.4°C 90% 0.0 km/h NE 1013.8 hPa 0 mm
22 juin 18:51 16.5°C 90% 0.0 km/h ENE 1013.7 hPa 0 mm
22 juin 18:50 16.5°C 90% 0.0 km/h ENE 1013.8 hPa 0 mm
22 juin 18:49 16.5°C 90% 0.0 km/h ENE 1013.8 hPa 0 mm
22 juin 18:48 16.5°C 90% 0.0 km/h NE 1013.8 hPa 0 mm
22 juin 18:47 16.5°C 90% 0.0 km/h ENE 1013.8 hPa 0 mm
22 juin 18:46 16.6°C 90% 0.0 km/h ENE 1013.8 hPa 0 mm
22 juin 18:45 16.6°C 89% 0.0 km/h ENE 1013.8 hPa 0 mm
22 juin 18:44 16.6°C 89% 0.0 km/h ENE 1013.8 hPa 0 mm
22 juin 18:43 16.6°C 89% 0.0 km/h ENE 1013.8 hPa 0 mm
22 juin 18:42 16.7°C 89% 0.0 km/h E 1013.8 hPa 0 mm
22 juin 18:41 16.7°C 89% 0.0 km/h NE 1013.8 hPa 0 mm
22 juin 18:40 16.7°C 89% 0.0 km/h NE 1013.8 hPa 0 mm
22 juin 18:39 16.7°C 89% 0.0 km/h ENE 1013.8 hPa 0 mm
22 juin 18:38 16.8°C 89% 0.0 km/h NE 1013.8 hPa 0 mm
22 juin 18:37 16.8°C 89% 0.0 km/h ENE 1013.7 hPa 0 mm
22 juin 18:36 16.9°C 88% 0.0 km/h NE 1013.7 hPa 0 mm
22 juin 18:35 16.9°C 88% 0.0 km/h ENE 1013.7 hPa 0 mm
22 juin 18:34 16.9°C 88% 0.0 km/h ENE 1013.7 hPa 0 mm
22 juin 18:33 16.9°C 88% 0.0 km/h E 1013.6 hPa 0 mm
22 juin 18:32 16.9°C 88% 0.0 km/h ENE 1013.6 hPa 0 mm
22 juin 18:31 16.9°C 88% 0.0 km/h NE 1013.6 hPa 0 mm
22 juin 18:30 16.9°C 88% 0.0 km/h NE 1013.6 hPa 0 mm
22 juin 18:29 17.0°C 88% 0.0 km/h NNE 1013.6 hPa 0 mm
22 juin 18:28 17.0°C 88% 0.0 km/h NE 1013.6 hPa 0.14 mm
22 juin 18:27 17.0°C 88% 0.0 km/h NNE 1013.6 hPa 0 mm
22 juin 18:26 17.0°C 88% 0.0 km/h NNE 1013.6 hPa 0 mm
22 juin 18:25 17.1°C 87% 0.0 km/h NNE 1013.6 hPa 0 mm
22 juin 18:24 17.1°C 87% 0.0 km/h NE 1013.6 hPa 0 mm
22 juin 18:23 17.2°C 87% 0.0 km/h NE 1013.6 hPa 0 mm
22 juin 18:22 17.2°C 87% 0.0 km/h NNE 1013.6 hPa 0.14 mm
22 juin 18:21 17.4°C 87% 0.0 km/h NNE 1013.6 hPa 0 mm
22 juin 18:20 17.4°C 87% 0.0 km/h NNE 1013.6 hPa 0.14 mm
22 juin 18:19 17.4°C 86% 0.0 km/h NNE 1013.6 hPa 0 mm
22 juin 18:18 17.5°C 86% 0.0 km/h NNE 1013.7 hPa 0.14 mm
22 juin 18:17 17.5°C 86% 0.0 km/h N 1013.7 hPa 0 mm
22 juin 18:16 17.5°C 86% 0.0 km/h ENE 1013.7 hPa 0 mm
22 juin 18:15 17.5°C 85% 0.0 km/h N 1013.7 hPa 0 mm
22 juin 18:14 17.6°C 84% 0.0 km/h N 1013.7 hPa 0 mm
22 juin 18:13 17.6°C 84% 0.0 km/h N 1013.7 hPa 0 mm
22 juin 18:12 17.6°C 84% 0.0 km/h NNE 1013.6 hPa 0 mm
22 juin 18:11 17.6°C 84% 0.0 km/h NNE 1013.6 hPa 0 mm
22 juin 18:10 17.7°C 84% 0.0 km/h NNE 1013.6 hPa 0.14 mm
22 juin 18:09 17.8°C 83% 0.0 km/h NNE 1013.5 hPa 0 mm
22 juin 18:08 17.8°C 83% 0.0 km/h NNE 1013.5 hPa 0 mm
22 juin 18:07 17.9°C 83% 0.0 km/h NNE 1013.4 hPa 0 mm
22 juin 18:06 18.0°C 82% 0.0 km/h NE 1013.4 hPa 0 mm
22 juin 18:05 18.2°C 82% 0.0 km/h NE 1013.4 hPa 0 mm
22 juin 18:04 18.2°C 82% 0.0 km/h NE 1013.5 hPa 0 mm
22 juin 18:03 18.4°C 81% 0.0 km/h NE 1013.5 hPa 0 mm
22 juin 18:02 18.4°C 81% 0.0 km/h ENE 1013.5 hPa 0 mm
22 juin 18:01 18.5°C 81% 0.0 km/h ENE 1013.6 hPa 0 mm
22 juin 18:00 18.6°C 80% 0.0 km/h NE 1013.6 hPa 0 mm
22 juin 17:59 18.6°C 80% 0.0 km/h NE 1013.6 hPa 0 mm
22 juin 17:58 18.7°C 79% 0.0 km/h ENE 1013.6 hPa 0 mm
22 juin 17:57 18.7°C 79% 0.0 km/h NE 1013.6 hPa 0 mm
22 juin 17:56 18.7°C 79% 0.0 km/h E 1013.6 hPa 0 mm
22 juin 17:55 18.7°C 79% 0.0 km/h ENE 1013.6 hPa 0 mm
22 juin 17:54 18.7°C 79% 0.0 km/h NE 1013.6 hPa 0 mm
22 juin 17:53 18.7°C 79% 0.0 km/h NNE 1013.5 hPa 0 mm
22 juin 17:52 18.7°C 78% 0.0 km/h ENE 1013.5 hPa 0 mm
22 juin 17:51 18.8°C 78% 0.0 km/h ENE 1013.4 hPa 0 mm
22 juin 17:50 18.8°C 78% 0.0 km/h NE 1013.4 hPa 0 mm
22 juin 17:49 18.8°C 78% 0.0 km/h NE 1013.3 hPa 0 mm
22 juin 17:48 18.8°C 78% 0.0 km/h NE 1013.3 hPa 0 mm
22 juin 17:47 18.8°C 77% 0.0 km/h NNE 1013.3 hPa 0 mm
22 juin 17:46 18.8°C 77% 0.0 km/h NE 1013.3 hPa 0 mm
22 juin 17:45 18.9°C 77% 0.0 km/h NE 1013.2 hPa 0 mm
22 juin 17:44 18.8°C 77% 0.0 km/h NE 1013.2 hPa 0 mm
22 juin 17:43 18.9°C 76% 0.0 km/h NNE 1013.2 hPa 0 mm
22 juin 17:42 18.9°C 76% 0.0 km/h NNE 1013.2 hPa 0 mm
22 juin 17:41 19.1°C 75% 0.0 km/h NNE 1013.2 hPa 0 mm
22 juin 17:40 19.1°C 75% 0.0 km/h NNE 1013.2 hPa 0 mm
22 juin 17:39 19.1°C 75% 0.0 km/h NE 1013.2 hPa 0 mm
22 juin 17:38 19.1°C 75% 0.0 km/h NNE 1013.3 hPa 0 mm
22 juin 17:37 19.2°C 75% 0.0 km/h NE 1013.3 hPa 0 mm
22 juin 17:36 19.3°C 74% 0.0 km/h NE 1013.4 hPa 0 mm
22 juin 17:35 19.3°C 73% 0.0 km/h NE 1013.5 hPa 0 mm
22 juin 17:34 19.4°C 73% 0.0 km/h NE 1013.4 hPa 0 mm
22 juin 17:33 19.6°C 72% 0.0 km/h NE 1013.4 hPa 0 mm
22 juin 17:32 19.8°C 73% 0.0 km/h NNE 1013.5 hPa 0 mm
22 juin 17:31 19.9°C 73% 0.0 km/h NE 1013.6 hPa 0 mm
22 juin 17:30 20.3°C 72% 0.0 km/h NE 1013.7 hPa 0 mm
22 juin 17:29 20.3°C 72% 0.0 km/h NNE 1013.7 hPa 0 mm
22 juin 17:28 20.3°C 72% 0.0 km/h NE 1013.7 hPa 0 mm
22 juin 17:27 20.4°C 72% 0.0 km/h NE 1013.6 hPa 0 mm
22 juin 17:26 20.4°C 71% 0.0 km/h NE 1013.5 hPa 0 mm
22 juin 17:25 20.5°C 71% 0.0 km/h NE 1013.5 hPa 0 mm
22 juin 17:24 20.7°C 70% 0.0 km/h ENE 1013.5 hPa 0 mm
22 juin 17:23 20.8°C 70% 0.0 km/h NE 1013.5 hPa 0 mm
22 juin 17:22 20.8°C 71% 0.0 km/h ENE 1013.5 hPa 0 mm
22 juin 17:21 20.8°C 71% 0.0 km/h ENE 1013.4 hPa 0 mm
22 juin 17:20 20.8°C 71% 0.0 km/h NE 1013.5 hPa 0 mm
22 juin 17:19 20.6°C 70% 0.0 km/h ENE 1013.6 hPa 0 mm
22 juin 17:18 20.5°C 72% 0.0 km/h NE 1013.6 hPa 0 mm
22 juin 17:17 20.4°C 71% 0.0 km/h NE 1013.7 hPa 0 mm
22 juin 17:16 20.2°C 71% 0.0 km/h NE 1013.7 hPa 0 mm
22 juin 17:15 20.3°C 70% 0.0 km/h NE 1013.7 hPa 0 mm
22 juin 17:14 20.6°C 70% 0.0 km/h NE 1013.7 hPa 0 mm
22 juin 17:13 20.6°C 70% 0.0 km/h NNE 1013.7 hPa 0 mm
22 juin 17:12 20.7°C 70% 0.0 km/h NNE 1013.7 hPa 0 mm
22 juin 17:11 20.9°C 70% 0.0 km/h NNE 1013.7 hPa 0 mm
22 juin 17:10 20.8°C 71% 0.0 km/h NNE 1013.7 hPa 0 mm
22 juin 17:09 20.8°C 71% 0.0 km/h NE 1013.7 hPa 0 mm
22 juin 17:08 20.8°C 71% 0.0 km/h NE 1013.7 hPa 0 mm
22 juin 17:07 20.8°C 71% 0.0 km/h NNE 1013.7 hPa 0 mm
22 juin 17:06 20.8°C 71% 0.0 km/h NE 1013.8 hPa 0 mm
22 juin 17:05 20.8°C 71% 0.0 km/h NNE 1013.8 hPa 0 mm
22 juin 17:04 20.6°C 72% 0.0 km/h NNE 1013.9 hPa 0 mm
22 juin 17:03 20.4°C 72% 0.0 km/h NE 1013.9 hPa 0 mm
22 juin 17:02 20.5°C 71% 0.0 km/h NE 1014.0 hPa 0 mm
22 juin 17:01 20.5°C 71% 0.0 km/h NE 1014.1 hPa 0 mm
22 juin 17:00 20.5°C 72% 0.0 km/h NNE 1014.1 hPa 0 mm
22 juin 16:59 20.5°C 71% 0.0 km/h NNE 1014.1 hPa 0 mm
22 juin 16:58 20.5°C 71% 0.0 km/h N 1014.0 hPa 0 mm
22 juin 16:57 20.4°C 71% 0.0 km/h NNE 1014.0 hPa 0 mm
22 juin 16:56 20.5°C 70% 0.0 km/h NNE 1014.0 hPa 0 mm
22 juin 16:55 20.5°C 70% 0.0 km/h NNE 1014.0 hPa 0 mm
22 juin 16:54 20.5°C 71% 0.0 km/h NNE 1014.0 hPa 0 mm
22 juin 16:53 20.4°C 70% 0.0 km/h NNE 1014.0 hPa 0 mm
22 juin 16:52 20.5°C 70% 0.0 km/h NNE 1014.0 hPa 0 mm
22 juin 16:51 20.5°C 69% 0.0 km/h NNE 1014.0 hPa 0 mm
22 juin 16:50 20.5°C 71% 0.0 km/h NNE 1014.1 hPa 0 mm
22 juin 16:49 20.5°C 69% 0.0 km/h NNE 1014.1 hPa 0 mm
22 juin 16:48 20.4°C 69% 0.0 km/h NNE 1014.1 hPa 0 mm
22 juin 16:47 20.5°C 69% 0.0 km/h NNE 1014.1 hPa 0 mm
22 juin 16:46 20.7°C 69% 0.0 km/h N 1014.1 hPa 0 mm
22 juin 16:45 20.7°C 69% 0.0 km/h NNE 1014.1 hPa 0 mm
22 juin 16:44 20.8°C 70% 0.0 km/h NNE 1014.1 hPa 0 mm
22 juin 16:43 20.8°C 70% 0.0 km/h NE 1014.1 hPa 0 mm
22 juin 16:42 20.8°C 70% 0.0 km/h NE 1014.1 hPa 0 mm
22 juin 16:41 20.8°C 70% 0.0 km/h E 1014.1 hPa 0 mm
22 juin 16:40 20.6°C 70% 0.0 km/h NE 1014.1 hPa 0 mm
22 juin 16:39 20.6°C 68% 0.0 km/h NNE 1014.1 hPa 0 mm
22 juin 16:38 20.7°C 68% 0.0 km/h N 1014.1 hPa 0 mm
22 juin 16:37 20.7°C 68% 0.0 km/h NNE 1014.1 hPa 0 mm
22 juin 16:36 20.7°C 68% 0.0 km/h NNE 1014.1 hPa 0 mm
22 juin 16:35 20.9°C 69% 0.0 km/h NNE 1014.1 hPa 0 mm
22 juin 16:34 20.9°C 69% 0.0 km/h NNE 1014.1 hPa 0 mm
22 juin 16:33 20.9°C 68% 0.0 km/h NNE 1014.1 hPa 0 mm
22 juin 16:32 21.0°C 69% 0.0 km/h NNE 1014.2 hPa 0 mm
22 juin 16:31 21.1°C 68% 0.0 km/h NE 1014.2 hPa 0 mm
22 juin 16:30 21.2°C 69% 0.0 km/h E 1014.1 hPa 0 mm
22 juin 16:29 21.3°C 69% 0.0 km/h ENE 1014.2 hPa 0 mm
22 juin 16:28 21.4°C 68% 0.0 km/h NE 1014.3 hPa 0 mm
22 juin 16:27 21.4°C 68% 0.0 km/h ENE 1014.3 hPa 0 mm
22 juin 16:26 21.4°C 68% 0.0 km/h ENE 1014.3 hPa 0 mm
22 juin 16:25 21.4°C 68% 0.0 km/h NE 1014.4 hPa 0 mm
22 juin 16:24 21.4°C 69% 0.0 km/h NE 1014.3 hPa 0 mm
22 juin 16:23 21.5°C 68% 0.0 km/h NE 1014.2 hPa 0 mm
22 juin 16:22 21.7°C 67% 0.0 km/h NNE 1014.1 hPa 0 mm
22 juin 16:21 21.9°C 67% 0.0 km/h NNE 1014.1 hPa 0 mm
22 juin 16:20 22.1°C 68% 0.0 km/h NNE 1014.2 hPa 0 mm
22 juin 16:19 22.1°C 68% 0.0 km/h NNE 1014.2 hPa 0 mm
22 juin 16:18 22.1°C 67% 0.0 km/h NNE 1014.2 hPa 0 mm
22 juin 16:17 22.0°C 69% 0.0 km/h NE 1014.2 hPa 0 mm
22 juin 16:16 21.9°C 67% 0.0 km/h NNE 1014.3 hPa 0 mm
22 juin 16:15 22.0°C 68% 0.0 km/h NE 1014.2 hPa 0 mm
22 juin 16:14 22.2°C 69% 0.0 km/h S 1014.2 hPa 0 mm
22 juin 16:13 22.0°C 67% 0.0 km/h ESE 1014.1 hPa 0 mm
22 juin 16:12 22.0°C 67% 0.0 km/h NE 1014.2 hPa 0 mm
22 juin 16:11 22.0°C 66% 0.0 km/h SSE 1014.2 hPa 0 mm
22 juin 16:10 22.1°C 66% 0.0 km/h SE 1014.2 hPa 0 mm
22 juin 16:09 22.1°C 66% 0.0 km/h NNE 1014.2 hPa 0 mm
22 juin 16:08 22.4°C 64% 0.0 km/h ENE 1014.2 hPa 0 mm
22 juin 16:07 22.6°C 68% 0.0 km/h SSE 1014.1 hPa 0 mm
22 juin 16:06 22.7°C 67% 0.0 km/h SE 1014.1 hPa 0 mm
22 juin 16:05 22.7°C 64% 0.0 km/h SE 1014.1 hPa 0 mm
22 juin 16:04 22.7°C 64% 0.0 km/h E 1014.1 hPa 0 mm
22 juin 16:03 22.8°C 68% 0.0 km/h SE 1014.1 hPa 0 mm
22 juin 16:02 22.6°C 65% 0.0 km/h SSE 1014.2 hPa 0 mm
22 juin 16:01 22.8°C 67% 0.0 km/h SE 1014.2 hPa 0 mm
22 juin 16:00 22.8°C 67% 0.0 km/h ESE 1014.2 hPa 0 mm
22 juin 15:59 22.8°C 67% 0.0 km/h ESE 1014.2 hPa 0 mm
22 juin 15:58 22.8°C 67% 0.0 km/h ESE 1014.2 hPa 0 mm
22 juin 15:57 22.6°C 67% 0.0 km/h ESE 1014.3 hPa 0 mm
22 juin 15:56 22.3°C 65% 0.0 km/h E 1014.3 hPa 0 mm
22 juin 15:55 22.5°C 66% 0.0 km/h E 1014.3 hPa 0 mm
22 juin 15:54 22.6°C 69% 0.0 km/h ESE 1014.3 hPa 0 mm
22 juin 15:53 22.6°C 69% 0.0 km/h E 1014.3 hPa 0 mm
22 juin 15:52 22.6°C 68% 0.0 km/h SE 1014.4 hPa 0 mm
22 juin 15:51 22.4°C 67% 0.0 km/h SSE 1014.4 hPa 0 mm
22 juin 15:50 22.4°C 67% 0.0 km/h SSO 1014.4 hPa 0 mm
22 juin 15:49 22.3°C 68% 0.0 km/h SE 1014.5 hPa 0 mm
22 juin 15:48 21.8°C 66% 0.0 km/h SE 1014.5 hPa 0 mm
22 juin 15:47 21.8°C 66% 0.0 km/h ENE 1014.6 hPa 0 mm
22 juin 15:46 21.6°C 67% 0.0 km/h E 1014.6 hPa 0 mm
22 juin 15:45 21.8°C 66% 0.0 km/h NE 1014.6 hPa 0 mm
22 juin 15:44 21.8°C 66% 0.0 km/h NNE 1014.6 hPa 0 mm
22 juin 15:43 22.2°C 66% 0.0 km/h N 1014.7 hPa 0 mm
22 juin 15:42 22.2°C 66% 0.0 km/h ENE 1014.7 hPa 0 mm
22 juin 15:41 22.4°C 67% 0.0 km/h SE 1014.7 hPa 0 mm
22 juin 15:40 22.4°C 68% 0.0 km/h SSE 1014.6 hPa 0 mm
22 juin 15:39 22.4°C 70% 0.0 km/h SE 1014.7 hPa 0 mm
22 juin 15:38 22.3°C 71% 0.0 km/h SE 1014.7 hPa 0 mm
22 juin 15:37 22.3°C 71% 0.0 km/h SE 1014.7 hPa 0 mm
22 juin 15:36 22.2°C 70% 0.0 km/h E 1014.8 hPa 0 mm
22 juin 15:35 21.9°C 71% 0.0 km/h ENE 1014.8 hPa 0 mm
22 juin 15:34 21.6°C 70% 0.0 km/h NNE 1014.8 hPa 0 mm
22 juin 15:33 21.4°C 68% 0.0 km/h E 1014.9 hPa 0 mm
22 juin 15:32 21.2°C 71% 0.0 km/h SE 1015.0 hPa 0 mm
22 juin 15:31 21.0°C 70% 0.0 km/h NE 1015.1 hPa 0 mm
22 juin 15:30 21.0°C 70% 0.0 km/h NNE 1015.0 hPa 0 mm
22 juin 15:29 21.1°C 70% 0.0 km/h NNE 1015.1 hPa 0 mm
22 juin 15:28 21.1°C 72% 0.0 km/h E 1015.1 hPa 0 mm
22 juin 15:27 20.9°C 72% 0.0 km/h E 1015.1 hPa 0 mm
22 juin 15:26 20.9°C 72% 0.0 km/h E 1015.0 hPa 0 mm
22 juin 15:25 20.9°C 75% 0.0 km/h NNE 1015.1 hPa 0 mm
22 juin 15:24 20.6°C 71% 0.0 km/h NNE 1015.1 hPa 0 mm
22 juin 15:23 20.6°C 71% 0.0 km/h NNE 1015.2 hPa 0 mm
22 juin 15:22 20.8°C 72% 0.0 km/h NNE 1015.2 hPa 0 mm
22 juin 15:21 21.0°C 74% 0.0 km/h NE 1015.0 hPa 0 mm
22 juin 15:20 20.4°C 76% 0.0 km/h NNE 1015.1 hPa 0 mm
22 juin 15:19 20.4°C 76% 0.0 km/h ENE 1015.1 hPa 0 mm
22 juin 15:18 19.9°C 76% 0.0 km/h NNE 1015.2 hPa 0 mm
22 juin 15:17 19.9°C 76% 0.0 km/h NE 1015.2 hPa 0 mm
22 juin 15:16 19.9°C 76% 0.0 km/h NE 1015.3 hPa 0 mm
22 juin 15:15 19.7°C 78% 0.0 km/h NNE 1015.2 hPa 0 mm
22 juin 15:14 19.5°C 78% 0.0 km/h ENE 1015.3 hPa 0 mm
22 juin 15:13 19.3°C 78% 0.0 km/h NNE 1015.3 hPa 0 mm
22 juin 15:12 19.3°C 77% 0.0 km/h NE 1015.2 hPa 0 mm
22 juin 15:11 19.3°C 77% 0.0 km/h NNE 1015.2 hPa 0 mm
22 juin 15:10 19.4°C 78% 0.0 km/h NNE 1015.1 hPa 0 mm
22 juin 15:09 19.6°C 78% 0.0 km/h NNE 1015.1 hPa 0 mm
22 juin 15:08 19.6°C 78% 0.0 km/h NNE 1015.1 hPa 0 mm
22 juin 15:07 19.6°C 78% 0.0 km/h NNE 1015.1 hPa 0 mm
22 juin 15:06 19.7°C 77% 0.0 km/h NE 1015.2 hPa 0 mm
22 juin 15:05 19.7°C 77% 0.0 km/h NE 1015.2 hPa 0 mm
22 juin 15:04 20.3°C 76% 0.0 km/h NNE 1015.2 hPa 0 mm
22 juin 15:03 20.3°C 76% 0.0 km/h NNE 1015.2 hPa 0 mm
22 juin 15:02 20.9°C 75% 0.0 km/h NE 1015.2 hPa 0 mm
22 juin 15:01 21.4°C 75% 0.0 km/h NE 1015.2 hPa 0 mm
22 juin 15:00 21.9°C 76% 0.0 km/h NE 1015.2 hPa 0 mm
22 juin 14:59 21.9°C 76% 0.0 km/h NE 1015.2 hPa 0 mm
22 juin 14:58 21.7°C 74% 0.0 km/h NNE 1015.3 hPa 0 mm
22 juin 14:57 21.7°C 74% 0.0 km/h NE 1015.3 hPa 0 mm
22 juin 14:56 21.6°C 72% 0.0 km/h NE 1015.3 hPa 0 mm
22 juin 14:55 21.1°C 73% 0.0 km/h NNE 1015.3 hPa 0 mm
22 juin 14:54 21.1°C 73% 0.0 km/h NE 1015.2 hPa 0 mm
22 juin 14:53 21.0°C 73% 0.0 km/h NE 1015.2 hPa 0 mm
22 juin 14:52 21.1°C 74% 0.0 km/h NNE 1015.2 hPa 0 mm
22 juin 14:51 21.1°C 74% 0.0 km/h NE 1015.3 hPa 0 mm
22 juin 14:50 21.1°C 74% 0.0 km/h NNE 1015.2 hPa 0 mm
22 juin 14:49 21.1°C 75% 0.0 km/h NE 1015.2 hPa 0 mm
22 juin 14:48 21.1°C 75% 0.0 km/h NE 1015.3 hPa 0 mm
22 juin 14:47 21.0°C 73% 0.0 km/h NNE 1015.2 hPa 0 mm
22 juin 14:46 21.0°C 73% 0.0 km/h NNE 1015.3 hPa 0 mm
22 juin 14:45 21.1°C 77% 0.0 km/h NNE 1015.3 hPa 0 mm
22 juin 14:44 20.7°C 75% 0.0 km/h NNE 1015.3 hPa 0 mm
22 juin 14:43 20.7°C 76% 0.0 km/h E 1015.3 hPa 0 mm
22 juin 14:42 20.5°C 79% 0.0 km/h NE 1015.3 hPa 0 mm
22 juin 14:41 20.1°C 78% 0.0 km/h ENE 1015.3 hPa 0 mm
22 juin 14:40 19.8°C 75% 0.0 km/h E 1015.4 hPa 0 mm
22 juin 14:39 19.8°C 79% 0.0 km/h E 1015.4 hPa 0 mm
22 juin 14:38 19.8°C 79% 0.0 km/h ENE 1015.4 hPa 0 mm
22 juin 14:37 19.7°C 77% 0.0 km/h NNE 1015.4 hPa 0 mm
22 juin 14:36 19.8°C 77% 0.0 km/h NE 1015.4 hPa 0 mm
22 juin 14:35 19.7°C 78% 0.0 km/h ESE 1015.5 hPa 0 mm
22 juin 14:34 19.6°C 78% 0.0 km/h NNE 1015.6 hPa 0 mm
22 juin 14:33 19.9°C 79% 0.0 km/h NE 1015.6 hPa 0 mm
22 juin 14:32 20.3°C 80% 0.0 km/h NNE 1015.6 hPa 0 mm
22 juin 14:31 20.3°C 80% 0.0 km/h NE 1015.5 hPa 0 mm
22 juin 14:30 20.3°C 80% 0.0 km/h NNE 1015.5 hPa 0 mm
22 juin 14:29 20.2°C 78% 0.0 km/h NE 1015.5 hPa 0 mm
22 juin 14:28 20.2°C 80% 0.0 km/h NNE 1015.5 hPa 0 mm
22 juin 14:27 20.0°C 82% 0.0 km/h ENE 1015.5 hPa 0 mm
22 juin 14:26 19.6°C 79% 0.0 km/h NNE 1015.5 hPa 0 mm
22 juin 14:25 19.7°C 81% 0.0 km/h N 1015.5 hPa 0 mm
22 juin 14:24 19.4°C 81% 0.0 km/h NNE 1015.5 hPa 0 mm
22 juin 14:23 19.2°C 81% 0.0 km/h NNE 1015.6 hPa 0 mm
22 juin 14:22 19.5°C 82% 0.0 km/h NNE 1015.6 hPa 0 mm
22 juin 14:21 19.5°C 82% 0.0 km/h NNE 1015.6 hPa 0 mm
22 juin 14:20 19.5°C 81% 0.0 km/h NE 1015.6 hPa 0 mm
22 juin 14:19 19.5°C 81% 0.0 km/h NNE 1015.7 hPa 0 mm
22 juin 14:18 19.6°C 81% 0.0 km/h ENE 1015.7 hPa 0 mm
22 juin 14:17 19.0°C 80% 0.0 km/h ESE 1015.7 hPa 0 mm
22 juin 14:16 19.0°C 80% 0.0 km/h ESE 1015.7 hPa 0 mm
22 juin 14:15 19.0°C 80% 0.0 km/h NE 1015.8 hPa 0 mm
22 juin 14:14 19.0°C 80% 0.0 km/h NE 1015.9 hPa 0 mm
22 juin 14:13 18.9°C 80% 0.0 km/h NNE 1015.9 hPa 0 mm
22 juin 14:12 19.0°C 80% 0.0 km/h NE 1015.8 hPa 0 mm
22 juin 14:11 19.2°C 82% 0.0 km/h N 1015.8 hPa 0 mm
22 juin 14:10 19.2°C 82% 0.0 km/h NE 1015.9 hPa 0 mm
22 juin 14:09 19.2°C 82% 0.0 km/h NNE 1015.9 hPa 0 mm
22 juin 14:08 19.1°C 80% 0.0 km/h NNE 1015.8 hPa 0 mm
22 juin 14:07 19.1°C 80% 0.0 km/h NNE 1015.9 hPa 0 mm
22 juin 14:06 19.3°C 80% 0.0 km/h NNE 1015.9 hPa 0 mm
22 juin 14:05 19.4°C 80% 0.0 km/h NNE 1015.9 hPa 0 mm
22 juin 14:04 19.4°C 80% 0.0 km/h NNE 1016.0 hPa 0 mm
22 juin 14:03 19.4°C 81% 0.0 km/h N 1016.0 hPa 0 mm
22 juin 14:02 19.4°C 81% 0.0 km/h ENE 1015.9 hPa 0 mm
22 juin 14:01 19.5°C 83% 0.0 km/h ENE 1015.9 hPa 0 mm
22 juin 14:00 19.5°C 83% 0.0 km/h ENE 1015.9 hPa 0 mm
22 juin 13:59 19.5°C 83% 0.0 km/h SSE 1015.9 hPa 0 mm
22 juin 13:58 19.3°C 85% 0.0 km/h SE 1016.0 hPa 0 mm
22 juin 13:57 19.3°C 85% 0.0 km/h SE 1016.0 hPa 0 mm
22 juin 13:56 18.9°C 84% 0.0 km/h ESE 1016.0 hPa 0 mm
22 juin 13:55 18.9°C 84% 0.0 km/h NE 1016.1 hPa 0 mm
22 juin 13:54 19.4°C 84% 0.0 km/h ENE 1016.1 hPa 0 mm
22 juin 13:53 19.4°C 84% 0.0 km/h NNE 1016.0 hPa 0 mm
22 juin 13:52 19.4°C 84% 0.0 km/h NNE 1016.0 hPa 0 mm
22 juin 13:51 19.4°C 84% 0.0 km/h N 1015.9 hPa 0 mm
22 juin 13:50 19.4°C 84% 0.0 km/h NNE 1016.0 hPa 0 mm
22 juin 13:49 19.4°C 84% 0.0 km/h NNE 1016.0 hPa 0 mm
22 juin 13:48 19.4°C 84% 0.0 km/h NNE 1016.0 hPa 0 mm
22 juin 13:47 18.9°C 84% 0.0 km/h NNE 1016.0 hPa 0 mm
22 juin 13:46 18.9°C 84% 0.0 km/h NE 1016.0 hPa 0 mm
22 juin 13:45 18.9°C 84% 0.0 km/h ENE 1016.0 hPa 0 mm
22 juin 13:44 18.9°C 86% 0.0 km/h NNE 1016.0 hPa 0 mm
22 juin 13:43 18.1°C 85% 0.0 km/h NE 1016.0 hPa 0 mm
22 juin 13:42 18.1°C 85% 0.0 km/h NE 1016.0 hPa 0 mm
22 juin 13:41 18.1°C 84% 0.0 km/h N 1016.1 hPa 0 mm
22 juin 13:40 18.3°C 85% 0.0 km/h NNE 1016.1 hPa 0 mm
22 juin 13:39 18.3°C 85% 0.0 km/h NNE 1016.1 hPa 0 mm
22 juin 13:38 18.3°C 85% 0.0 km/h NNE 1016.0 hPa 0 mm
22 juin 13:37 18.3°C 86% 0.0 km/h ESE 1016.1 hPa 0 mm
22 juin 13:36 18.3°C 86% 0.0 km/h N 1016.2 hPa 0 mm
22 juin 13:35 18.3°C 86% 0.0 km/h NE 1016.1 hPa 0 mm
22 juin 13:34 18.3°C 86% 0.0 km/h SE 1016.1 hPa 0 mm
22 juin 13:33 18.4°C 87% 0.0 km/h NE 1016.1 hPa 0 mm
22 juin 13:32 18.5°C 87% 0.0 km/h SE 1016.0 hPa 0 mm
22 juin 13:31 18.6°C 86% 0.0 km/h SSO 1016.1 hPa 0 mm
22 juin 13:30 18.6°C 86% 0.0 km/h NNE 1016.1 hPa 0 mm
22 juin 13:29 18.5°C 85% 0.0 km/h NE 1016.1 hPa 0 mm
22 juin 13:28 18.5°C 86% 0.0 km/h NE 1016.1 hPa 0 mm
22 juin 13:27 18.4°C 87% 0.0 km/h NE 1016.1 hPa 0 mm
22 juin 13:26 18.1°C 86% 0.0 km/h NE 1016.1 hPa 0 mm
22 juin 13:25 18.1°C 86% 0.0 km/h NNE 1016.1 hPa 0 mm
22 juin 13:24 18.0°C 86% 0.0 km/h ENE 1016.1 hPa 0 mm
22 juin 13:23 18.0°C 86% 0.0 km/h NE 1016.1 hPa 0 mm
22 juin 13:22 17.8°C 86% 0.0 km/h NNE 1016.1 hPa 0 mm
22 juin 13:21 17.5°C 86% 0.0 km/h NNE 1016.1 hPa 0 mm
22 juin 13:20 17.5°C 86% 0.0 km/h NE 1016.2 hPa 0 mm
22 juin 13:19 17.5°C 86% 0.0 km/h NE 1016.2 hPa 0 mm
22 juin 13:18 17.4°C 86% 0.0 km/h NNE 1016.2 hPa 0 mm
22 juin 13:17 17.4°C 87% 0.0 km/h ENE 1016.2 hPa 0 mm
22 juin 13:16 17.3°C 87% 0.0 km/h NE 1016.3 hPa 0 mm
22 juin 13:15 17.2°C 87% 0.0 km/h ENE 1016.3 hPa 0 mm
22 juin 13:14 17.3°C 87% 0.0 km/h NE 1016.2 hPa 0 mm
22 juin 13:13 17.3°C 87% 0.0 km/h N 1016.3 hPa 0 mm
22 juin 13:12 17.4°C 87% 0.0 km/h N 1016.3 hPa 0 mm
22 juin 13:11 17.4°C 87% 0.0 km/h NNE 1016.3 hPa 0 mm
22 juin 13:10 17.6°C 87% 0.0 km/h NNE 1016.4 hPa 0 mm
22 juin 13:09 17.6°C 88% 0.0 km/h N 1016.3 hPa 0 mm
22 juin 13:08 17.6°C 88% 0.0 km/h ENE 1016.3 hPa 0 mm
22 juin 13:07 17.6°C 88% 0.0 km/h NE 1016.3 hPa 0 mm
22 juin 13:06 17.6°C 88% 0.0 km/h NNE 1016.3 hPa 0 mm
22 juin 13:05 17.7°C 89% 0.0 km/h NE 1016.3 hPa 0 mm
22 juin 13:04 17.5°C 89% 0.0 km/h ENE 1016.3 hPa 0 mm
22 juin 13:03 17.5°C 89% 0.0 km/h NNE 1016.3 hPa 0 mm
22 juin 13:02 17.2°C 89% 0.0 km/h NE 1016.3 hPa 0 mm
22 juin 13:01 17.0°C 89% 0.0 km/h NE 1016.3 hPa 0 mm
22 juin 13:00 16.7°C 90% 0.0 km/h NNE 1016.3 hPa 0 mm
22 juin 12:59 16.7°C 90% 0.0 km/h NNE 1016.3 hPa 0 mm
22 juin 12:58 16.7°C 90% 0.0 km/h NNE 1016.3 hPa 0 mm
22 juin 12:57 16.7°C 91% 0.0 km/h NNE 1016.3 hPa 0 mm
22 juin 12:56 16.7°C 91% 0.0 km/h NNE 1016.3 hPa 0 mm
22 juin 12:55 16.4°C 90% 0.0 km/h N 1016.2 hPa 0 mm
22 juin 12:54 16.4°C 90% 0.0 km/h NNE 1016.3 hPa 0 mm
22 juin 12:53 16.4°C 90% 0.0 km/h NNE 1016.2 hPa 0 mm
22 juin 12:52 16.6°C 91% 0.0 km/h NNE 1016.3 hPa 0 mm
22 juin 12:51 16.5°C 91% 0.0 km/h NNE 1016.3 hPa 0 mm
22 juin 12:50 16.6°C 91% 0.0 km/h N 1016.4 hPa 0 mm
22 juin 12:49 16.4°C 91% 0.0 km/h NNE 1016.4 hPa 0 mm
22 juin 12:48 16.4°C 91% 0.0 km/h NNE 1016.4 hPa 0 mm
22 juin 12:47 16.4°C 91% 0.0 km/h NNE 1016.3 hPa 0 mm
22 juin 12:46 16.3°C 92% 0.0 km/h NE 1016.3 hPa 0 mm
22 juin 12:45 16.3°C 92% 0.0 km/h NNE 1016.3 hPa 0 mm
22 juin 12:44 16.3°C 92% 0.0 km/h NNE 1016.3 hPa 0 mm
22 juin 12:43 16.3°C 92% 0.0 km/h NNE 1016.3 hPa 0 mm
22 juin 12:42 16.4°C 92% 0.0 km/h N 1016.3 hPa 0 mm
22 juin 12:41 16.4°C 92% 0.0 km/h NNE 1016.4 hPa 0 mm
22 juin 12:40 16.4°C 92% 0.0 km/h NE 1016.4 hPa 0 mm
22 juin 12:39 16.3°C 92% 0.0 km/h NNE 1016.3 hPa 0 mm
22 juin 12:38 16.3°C 92% 0.0 km/h NNE 1016.3 hPa 0 mm
22 juin 12:37 16.3°C 92% 0.0 km/h NNE 1016.2 hPa 0 mm
22 juin 12:36 16.4°C 92% 0.0 km/h N 1016.3 hPa 0 mm
22 juin 12:35 16.6°C 92% 0.0 km/h NNE 1016.3 hPa 0 mm
22 juin 12:34 16.7°C 92% 0.0 km/h NE 1016.3 hPa 0 mm
22 juin 12:33 16.7°C 92% 0.0 km/h N 1016.3 hPa 0 mm
22 juin 12:32 16.5°C 92% 0.0 km/h ENE 1016.3 hPa 0 mm
22 juin 12:31 16.5°C 91% 0.0 km/h NNE 1016.2 hPa 0 mm
22 juin 12:30 16.5°C 92% 0.0 km/h NNE 1016.3 hPa 0 mm
22 juin 12:29 16.5°C 91% 0.0 km/h NNE 1016.2 hPa 0 mm
22 juin 12:28 16.6°C 92% 0.0 km/h NNE 1016.2 hPa 0 mm
22 juin 12:27 16.6°C 93% 0.0 km/h NE 1016.2 hPa 0 mm
22 juin 12:26 16.6°C 93% 0.0 km/h NNE 1016.2 hPa 0 mm
22 juin 12:25 16.3°C 93% 0.0 km/h NNE 1016.3 hPa 0 mm
22 juin 12:24 16.3°C 93% 0.0 km/h NNE 1016.3 hPa 0 mm
22 juin 12:23 16.1°C 93% 0.0 km/h NNE 1016.2 hPa 0 mm
22 juin 12:22 16.1°C 93% 0.0 km/h N 1016.2 hPa 0 mm
22 juin 12:21 16.1°C 93% 0.0 km/h NE 1016.3 hPa 0 mm
22 juin 12:20 16.0°C 93% 0.0 km/h NNE 1016.2 hPa 0 mm
22 juin 12:19 15.8°C 93% 0.0 km/h N 1016.2 hPa 0 mm
22 juin 12:18 15.9°C 93% 0.0 km/h N 1016.3 hPa 0 mm
22 juin 12:17 15.8°C 93% 0.0 km/h NNE 1016.2 hPa 0 mm
22 juin 12:16 15.8°C 93% 0.0 km/h NNE 1016.2 hPa 0 mm
22 juin 12:15 15.8°C 93% 0.0 km/h NNE 1016.3 hPa 0.14 mm
22 juin 12:14 15.9°C 92% 0.0 km/h NNE 1016.2 hPa 0 mm
22 juin 12:13 15.9°C 92% 0.0 km/h NNE 1016.1 hPa 0 mm
22 juin 12:12 15.9°C 92% 0.0 km/h NNE 1016.1 hPa 0 mm
22 juin 12:11 16.0°C 92% 0.0 km/h N 1016.1 hPa 0 mm
22 juin 12:10 16.0°C 92% 0.0 km/h NNE 1016.2 hPa 0 mm
22 juin 12:09 16.0°C 92% 0.0 km/h NE 1016.2 hPa 0 mm
22 juin 12:08 16.2°C 92% 0.0 km/h N 1016.2 hPa 0 mm
22 juin 12:07 16.1°C 92% 0.0 km/h NNE 1016.2 hPa 0 mm
22 juin 12:06 16.0°C 92% 0.0 km/h NNE 1016.3 hPa 0 mm
22 juin 12:05 16.2°C 92% 0.0 km/h NNE 1016.4 hPa 0 mm
22 juin 12:04 16.2°C 92% 0.0 km/h NNE 1016.3 hPa 0 mm
22 juin 12:03 16.2°C 92% 0.0 km/h NNE 1016.2 hPa 0 mm
22 juin 12:02 16.3°C 92% 0.0 km/h NNE 1016.2 hPa 0 mm
22 juin 12:01 16.2°C 93% 0.0 km/h NE 1016.2 hPa 0 mm
22 juin 12:00 16.1°C 92% 0.0 km/h NNE 1016.3 hPa 0 mm
22 juin 11:59 16.1°C 93% 0.0 km/h NNE 1016.3 hPa 0 mm
22 juin 11:58 16.0°C 93% 0.0 km/h NNE 1016.3 hPa 0 mm
22 juin 11:57 16.0°C 93% 0.0 km/h NNE 1016.4 hPa 0 mm
22 juin 11:56 15.8°C 93% 0.0 km/h NNE 1016.5 hPa 0 mm
22 juin 11:55 15.8°C 93% 0.0 km/h NNE 1016.5 hPa 0 mm
22 juin 11:54 15.8°C 93% 0.0 km/h NNE 1016.5 hPa 0 mm
22 juin 11:53 15.8°C 93% 0.0 km/h NNE 1016.6 hPa 0 mm
22 juin 11:52 15.7°C 93% 0.0 km/h E 1016.5 hPa 0 mm
22 juin 11:51 15.7°C 93% 0.0 km/h NE 1016.5 hPa 0 mm
22 juin 11:50 15.7°C 93% 0.0 km/h N 1016.5 hPa 0 mm
22 juin 11:49 15.7°C 93% 0.0 km/h N 1016.5 hPa 0 mm
22 juin 11:48 15.7°C 93% 0.0 km/h ENE 1016.5 hPa 0 mm
22 juin 11:47 15.7°C 93% 0.0 km/h NE 1016.5 hPa 0 mm
22 juin 11:46 15.6°C 93% 0.0 km/h NNE 1016.5 hPa 0 mm
22 juin 11:45 15.6°C 93% 0.0 km/h N 1016.5 hPa 0 mm
22 juin 11:44 15.5°C 93% 0.0 km/h NNE 1016.5 hPa 0 mm
22 juin 11:43 15.6°C 93% 0.0 km/h NNE 1016.5 hPa 0 mm
22 juin 11:42 15.6°C 93% 0.0 km/h E 1016.5 hPa 0 mm
22 juin 11:41 15.6°C 93% 0.0 km/h E 1016.5 hPa 0 mm
22 juin 11:40 15.6°C 93% 0.0 km/h NE 1016.5 hPa 0 mm
22 juin 11:39 15.6°C 93% 0.0 km/h ENE 1016.5 hPa 0 mm
22 juin 11:38 15.7°C 93% 0.0 km/h N 1016.5 hPa 0 mm
22 juin 11:37 15.6°C 93% 0.0 km/h NNE 1016.5 hPa 0 mm
22 juin 11:36 15.7°C 93% 0.0 km/h NE 1016.5 hPa 0 mm
22 juin 11:35 15.7°C 93% 0.0 km/h NNE 1016.5 hPa 0 mm
22 juin 11:34 15.7°C 93% 0.0 km/h NNE 1016.4 hPa 0 mm
22 juin 11:33 15.7°C 93% 0.0 km/h NNE 1016.5 hPa 0 mm
22 juin 11:32 15.7°C 94% 0.0 km/h NE 1016.5 hPa 0 mm
22 juin 11:31 15.8°C 94% 0.0 km/h NE 1016.4 hPa 0 mm
22 juin 11:30 15.8°C 94% 0.0 km/h NNE 1016.4 hPa 0 mm
22 juin 11:29 15.8°C 94% 0.0 km/h NNE 1016.4 hPa 0 mm
22 juin 11:28 15.9°C 94% 0.0 km/h NNE 1016.4 hPa 0 mm
22 juin 11:27 15.8°C 94% 0.0 km/h NE 1016.4 hPa 0 mm
22 juin 11:26 15.6°C 94% 0.0 km/h NNE 1016.4 hPa 0 mm
22 juin 11:25 15.6°C 94% 0.0 km/h NE 1016.4 hPa 0 mm
22 juin 11:24 15.6°C 94% 0.0 km/h NNE 1016.4 hPa 0 mm
22 juin 11:23 15.6°C 95% 0.0 km/h NE 1016.4 hPa 0 mm
22 juin 11:22 15.6°C 95% 0.0 km/h NNE 1016.4 hPa 0 mm
22 juin 11:21 15.6°C 95% 0.0 km/h NE 1016.4 hPa 0 mm
22 juin 11:20 15.4°C 95% 0.0 km/h NE 1016.4 hPa 0 mm
22 juin 11:19 15.4°C 95% 0.0 km/h NNE 1016.4 hPa 0 mm
22 juin 11:18 15.4°C 95% 0.0 km/h NE 1016.5 hPa 0 mm
22 juin 11:17 15.3°C 95% 0.0 km/h NNE 1016.5 hPa 0 mm
22 juin 11:16 15.3°C 95% 0.0 km/h ENE 1016.5 hPa 0 mm
22 juin 11:15 15.2°C 95% 0.0 km/h NE 1016.5 hPa 0 mm
22 juin 11:14 15.2°C 95% 0.0 km/h NE 1016.5 hPa 0 mm
22 juin 11:13 15.2°C 95% 0.0 km/h NE 1016.5 hPa 0 mm
22 juin 11:12 15.2°C 95% 0.0 km/h ENE 1016.5 hPa 0 mm
22 juin 11:11 15.1°C 95% 0.0 km/h NE 1016.5 hPa 0 mm
22 juin 11:10 15.1°C 95% 0.0 km/h ENE 1016.5 hPa 0 mm
22 juin 11:09 15.0°C 95% 0.0 km/h NE 1016.5 hPa 0 mm
22 juin 11:08 14.9°C 95% 0.0 km/h ENE 1016.5 hPa 0 mm
22 juin 11:07 14.9°C 95% 0.0 km/h NNE 1016.5 hPa 0 mm
22 juin 11:06 14.9°C 95% 0.0 km/h NNE 1016.5 hPa 0 mm
22 juin 11:05 14.9°C 95% 0.0 km/h NE 1016.5 hPa 0 mm
22 juin 11:04 14.9°C 95% 0.0 km/h NNE 1016.5 hPa 0 mm
22 juin 11:03 14.9°C 95% 0.0 km/h NE 1016.5 hPa 0 mm
22 juin 11:02 14.8°C 95% 0.0 km/h ENE 1016.4 hPa 0 mm
22 juin 11:01 14.8°C 95% 0.0 km/h NNE 1016.5 hPa 0 mm
22 juin 11:00 14.8°C 95% 0.0 km/h NNE 1016.5 hPa 0 mm
22 juin 10:59 14.7°C 95% 0.0 km/h NE 1016.5 hPa 0 mm
22 juin 10:58 14.7°C 95% 0.0 km/h NNE 1016.5 hPa 0 mm
22 juin 10:57 14.7°C 95% 0.0 km/h NNE 1016.5 hPa 0 mm
22 juin 10:56 14.6°C 95% 0.0 km/h NNE 1016.6 hPa 0 mm
22 juin 10:55 14.6°C 95% 0.0 km/h NNE 1016.6 hPa 0 mm
22 juin 10:54 14.7°C 95% 0.0 km/h NNE 1016.6 hPa 0 mm
22 juin 10:53 14.7°C 95% 0.0 km/h NNE 1016.6 hPa 0 mm
22 juin 10:52 14.7°C 95% 0.0 km/h N 1016.5 hPa 0 mm
22 juin 10:51 14.7°C 95% 0.0 km/h NNE 1016.6 hPa 0 mm
22 juin 10:50 14.8°C 95% 0.0 km/h NNE 1016.6 hPa 0 mm
22 juin 10:49 14.9°C 95% 0.0 km/h NNE 1016.7 hPa 0 mm
22 juin 10:48 14.8°C 94% 0.0 km/h N 1016.7 hPa 0 mm
22 juin 10:47 15.4°C 94% 0.0 km/h N 1016.7 hPa 0 mm
22 juin 10:46 15.4°C 94% 0.0 km/h NE 1016.7 hPa 0 mm
22 juin 10:45 15.4°C 94% 0.0 km/h NNE 1016.6 hPa 0 mm
22 juin 10:44 15.4°C 94% 0.0 km/h N 1016.6 hPa 0 mm
22 juin 10:43 15.4°C 94% 0.0 km/h NE 1016.6 hPa 0 mm
22 juin 10:42 15.4°C 94% 0.0 km/h NNE 1016.5 hPa 0 mm
22 juin 10:41 15.4°C 94% 0.0 km/h N 1016.5 hPa 0 mm
22 juin 10:40 15.8°C 94% 0.0 km/h NNE 1016.4 hPa 0 mm
22 juin 10:39 15.8°C 94% 0.0 km/h NE 1016.4 hPa 0 mm
22 juin 10:38 16.0°C 94% 0.0 km/h NNE 1016.4 hPa 0 mm
22 juin 10:37 16.1°C 94% 0.0 km/h N 1016.4 hPa 0 mm
22 juin 10:36 16.1°C 94% 0.0 km/h N 1016.5 hPa 0 mm
22 juin 10:35 16.1°C 94% 0.0 km/h N 1016.5 hPa 0 mm
22 juin 10:34 16.1°C 94% 0.0 km/h NNE 1016.5 hPa 0 mm
22 juin 10:33 16.1°C 94% 0.0 km/h N 1016.4 hPa 0 mm
22 juin 10:32 16.1°C 94% 0.0 km/h NNE 1016.4 hPa 0 mm
22 juin 10:31 16.1°C 94% 0.0 km/h NE 1016.3 hPa 0 mm
22 juin 10:30 16.0°C 94% 0.0 km/h NNE 1016.3 hPa 0 mm
22 juin 10:29 16.0°C 94% 0.0 km/h NNE 1016.3 hPa 0 mm
22 juin 10:28 16.1°C 95% 0.0 km/h N 1016.3 hPa 0 mm
22 juin 10:27 16.1°C 95% 0.0 km/h NNE 1016.3 hPa 0 mm
22 juin 10:26 16.0°C 95% 0.0 km/h N 1016.3 hPa 0 mm
22 juin 10:25 16.0°C 95% 0.0 km/h NE 1016.3 hPa 0 mm
22 juin 10:24 16.0°C 95% 0.0 km/h ENE 1016.3 hPa 0 mm
22 juin 10:23 16.0°C 95% 0.0 km/h NNE 1016.3 hPa 0 mm
22 juin 10:22 16.0°C 95% 0.0 km/h NNE 1016.4 hPa 0 mm
22 juin 10:21 16.1°C 96% 0.0 km/h N 1016.4 hPa 0 mm
22 juin 10:20 16.0°C 95% 0.0 km/h NNE 1016.6 hPa 0 mm
22 juin 10:19 15.9°C 95% 0.0 km/h NE 1016.6 hPa 0 mm
22 juin 10:18 15.9°C 95% 0.0 km/h NE 1016.5 hPa 0 mm
22 juin 10:17 15.9°C 95% 0.0 km/h NE 1016.5 hPa 0 mm
22 juin 10:16 15.8°C 96% 0.0 km/h N 1016.4 hPa 0 mm
22 juin 10:15 15.8°C 96% 0.0 km/h NNE 1016.4 hPa 0 mm
22 juin 10:14 15.8°C 96% 0.0 km/h NNE 1016.3 hPa 0 mm
22 juin 10:13 15.8°C 96% 0.0 km/h N 1016.3 hPa 0 mm
22 juin 10:12 15.8°C 96% 0.0 km/h NNE 1016.3 hPa 0 mm
22 juin 10:11 15.7°C 96% 0.0 km/h NNE 1016.3 hPa 0 mm
22 juin 10:10 15.7°C 96% 0.0 km/h N 1016.3 hPa 0 mm
22 juin 10:09 15.6°C 96% 0.0 km/h N 1016.3 hPa 0 mm
22 juin 10:08 15.5°C 96% 0.0 km/h NNE 1016.4 hPa 0 mm
22 juin 10:07 15.5°C 96% 0.0 km/h N 1016.4 hPa 0 mm
22 juin 10:06 15.5°C 96% 0.0 km/h NNE 1016.4 hPa 0 mm
22 juin 10:05 15.6°C 96% 0.0 km/h NNE 1016.4 hPa 0 mm
22 juin 10:04 15.5°C 96% 0.0 km/h NE 1016.4 hPa 0 mm
22 juin 10:03 15.5°C 96% 0.0 km/h NNE 1016.4 hPa 0 mm
22 juin 10:02 15.5°C 96% 0.0 km/h N 1016.4 hPa 0 mm
22 juin 10:01 15.4°C 96% 0.0 km/h NE 1016.4 hPa 0 mm
22 juin 10:00 15.4°C 96% 0.0 km/h N 1016.4 hPa 0 mm
22 juin 09:59 15.4°C 96% 0.0 km/h N 1016.4 hPa 0 mm
22 juin 09:58 15.4°C 96% 0.0 km/h NNE 1016.4 hPa 0 mm
22 juin 09:57 15.4°C 96% 0.0 km/h ENE 1016.4 hPa 0 mm
22 juin 09:56 15.5°C 96% 0.0 km/h NE 1016.4 hPa 0 mm
22 juin 09:55 15.4°C 96% 0.0 km/h NNE 1016.4 hPa 0 mm
22 juin 09:54 15.4°C 96% 0.0 km/h N 1016.4 hPa 0 mm
22 juin 09:53 15.4°C 96% 0.0 km/h NNE 1016.4 hPa 0 mm
22 juin 09:52 15.5°C 96% 0.0 km/h N 1016.4 hPa 0 mm
22 juin 09:51 15.5°C 96% 0.0 km/h ENE 1016.4 hPa 0 mm
22 juin 09:50 15.5°C 96% 0.0 km/h NNE 1016.4 hPa 0 mm
22 juin 09:49 15.5°C 96% 0.0 km/h NE 1016.4 hPa 0 mm
22 juin 09:48 15.6°C 96% 0.0 km/h N 1016.5 hPa 0 mm
22 juin 09:47 15.6°C 96% 0.0 km/h NNE 1016.5 hPa 0 mm
22 juin 09:46 15.6°C 96% 0.0 km/h ENE 1016.5 hPa 0 mm
22 juin 09:45 15.6°C 96% 0.0 km/h ESE 1016.5 hPa 0 mm
22 juin 09:44 15.6°C 96% 0.0 km/h E 1016.5 hPa 0 mm
22 juin 09:43 15.7°C 96% 0.0 km/h E 1016.4 hPa 0 mm
22 juin 09:42 15.8°C 96% 0.0 km/h NNE 1016.4 hPa 0 mm
22 juin 09:41 15.9°C 96% 0.0 km/h NE 1016.4 hPa 0 mm
22 juin 09:40 15.9°C 96% 0.0 km/h N 1016.4 hPa 0.14 mm
22 juin 09:39 15.9°C 96% 0.0 km/h N 1016.4 hPa 0 mm
22 juin 09:38 15.9°C 96% 0.0 km/h NNE 1016.4 hPa 0 mm
22 juin 09:37 15.9°C 96% 0.0 km/h N 1016.4 hPa 0 mm
22 juin 09:36 15.9°C 96% 0.0 km/h NNE 1016.5 hPa 0 mm
22 juin 09:35 16.0°C 96% 0.0 km/h NE 1016.4 hPa 0 mm
22 juin 09:34 15.9°C 96% 0.0 km/h NNE 1016.4 hPa 0 mm
22 juin 09:33 15.9°C 96% 0.0 km/h NE 1016.5 hPa 0 mm
22 juin 09:32 15.9°C 96% 0.0 km/h NNE 1016.5 hPa 0 mm
22 juin 09:31 15.9°C 96% 0.0 km/h ENE 1016.5 hPa 0 mm
22 juin 09:30 15.9°C 96% 0.0 km/h NNE 1016.4 hPa 0 mm
22 juin 09:29 16.0°C 96% 0.0 km/h N 1016.4 hPa 0 mm
22 juin 09:28 16.0°C 96% 0.0 km/h N 1016.5 hPa 0 mm
22 juin 09:27 16.0°C 96% 0.0 km/h NE 1016.5 hPa 0 mm
22 juin 09:26 16.0°C 96% 0.0 km/h NNE 1016.5 hPa 0 mm
22 juin 09:25 16.0°C 96% 0.0 km/h SE 1016.4 hPa 0 mm
22 juin 09:24 16.1°C 96% 0.0 km/h SE 1016.4 hPa 0 mm
22 juin 09:23 16.1°C 96% 0.0 km/h E 1016.4 hPa 0 mm
22 juin 09:22 16.1°C 96% 0.0 km/h E 1016.4 hPa 0 mm
22 juin 09:21 16.1°C 96% 0.0 km/h S 1016.4 hPa 0 mm
22 juin 09:20 16.1°C 96% 0.0 km/h E 1016.4 hPa 0 mm
22 juin 09:19 16.1°C 96% 0.0 km/h E 1016.4 hPa 0 mm
22 juin 09:18 16.1°C 96% 0.0 km/h SSE 1016.4 hPa 0 mm
22 juin 09:17 16.1°C 96% 0.0 km/h ESE 1016.4 hPa 0 mm
22 juin 09:16 16.1°C 95% 0.0 km/h E 1016.4 hPa 0 mm
22 juin 09:15 16.1°C 95% 0.0 km/h OSO 1016.4 hPa 0 mm
22 juin 09:14 16.1°C 95% 0.0 km/h ESE 1016.4 hPa 0 mm
22 juin 09:13 16.1°C 95% 0.0 km/h SSE 1016.4 hPa 0 mm
22 juin 09:12 16.1°C 95% 0.0 km/h ESE 1016.4 hPa 0 mm
22 juin 09:11 16.2°C 95% 0.0 km/h SSE 1016.4 hPa 0 mm
22 juin 09:10 16.1°C 95% 0.0 km/h SE 1016.4 hPa 0 mm
22 juin 09:09 16.2°C 95% 0.0 km/h SE 1016.4 hPa 0 mm
22 juin 09:08 16.2°C 95% 0.0 km/h SSE 1016.4 hPa 0 mm
22 juin 09:07 16.2°C 95% 0.0 km/h ESE 1016.5 hPa 0 mm
22 juin 09:06 16.2°C 95% 0.0 km/h SSE 1016.4 hPa 0 mm
22 juin 09:05 16.2°C 95% 0.0 km/h SSE 1016.4 hPa 0 mm
22 juin 09:04 16.2°C 95% 0.0 km/h SSE 1016.5 hPa 0 mm
22 juin 09:03 16.2°C 95% 0.0 km/h ESE 1016.4 hPa 0 mm
22 juin 09:02 16.3°C 95% 0.0 km/h SE 1016.4 hPa 0 mm
22 juin 09:01 16.3°C 95% 0.0 km/h SE 1016.4 hPa 0 mm
22 juin 09:00 16.2°C 95% 0.0 km/h SE 1016.4 hPa 0 mm
22 juin 08:59 16.2°C 95% 0.0 km/h SSO 1016.4 hPa 0 mm
22 juin 08:58 16.3°C 95% 0.0 km/h S 1016.4 hPa 0 mm
22 juin 08:57 16.3°C 95% 0.0 km/h SSE 1016.4 hPa 0 mm
22 juin 08:56 16.3°C 95% 0.0 km/h SSE 1016.4 hPa 0 mm
22 juin 08:55 16.2°C 95% 0.0 km/h NE 1016.4 hPa 0 mm
22 juin 08:54 16.2°C 95% 0.0 km/h S 1016.5 hPa 0 mm
22 juin 08:53 16.2°C 95% 0.0 km/h E 1016.4 hPa 0 mm
22 juin 08:52 16.2°C 95% 0.0 km/h SE 1016.3 hPa 0 mm
22 juin 08:51 16.2°C 95% 0.0 km/h SE 1016.4 hPa 0 mm
22 juin 08:50 16.2°C 95% 0.0 km/h S 1016.5 hPa 0 mm
22 juin 08:49 16.2°C 95% 0.0 km/h SE 1016.6 hPa 0 mm
22 juin 08:48 16.2°C 95% 0.0 km/h ENE 1016.5 hPa 0 mm
22 juin 08:47 16.2°C 95% 0.0 km/h NE 1016.4 hPa 0 mm
22 juin 08:46 16.2°C 95% 0.0 km/h N 1016.4 hPa 0 mm
22 juin 08:45 16.2°C 95% 0.0 km/h SSE 1016.4 hPa 0 mm
22 juin 08:44 16.2°C 95% 0.0 km/h SE 1016.4 hPa 0 mm
22 juin 08:43 16.2°C 95% 0.0 km/h SSE 1016.4 hPa 0 mm
22 juin 08:42 16.1°C 95% 0.0 km/h SSE 1016.4 hPa 0 mm
22 juin 08:41 16.1°C 95% 0.0 km/h SSE 1016.4 hPa 0 mm
22 juin 08:40 16.2°C 95% 0.0 km/h ESE 1016.4 hPa 0 mm
22 juin 08:39 16.1°C 95% 0.0 km/h ESE 1016.4 hPa 0 mm
22 juin 08:38 16.0°C 95% 0.0 km/h S 1016.4 hPa 0 mm
22 juin 08:37 16.0°C 95% 0.0 km/h E 1016.4 hPa 0 mm
22 juin 08:36 16.0°C 95% 0.0 km/h SE 1016.4 hPa 0 mm
22 juin 08:35 16.0°C 95% 0.0 km/h E 1016.4 hPa 0 mm
22 juin 08:34 16.0°C 95% 0.0 km/h E 1016.4 hPa 0 mm
22 juin 08:33 16.0°C 95% 0.0 km/h ESE 1016.4 hPa 0 mm
22 juin 08:32 16.0°C 96% 0.0 km/h E 1016.3 hPa 0 mm
22 juin 08:31 16.0°C 96% 0.0 km/h E 1016.3 hPa 0 mm
22 juin 08:30 16.0°C 96% 0.0 km/h E 1016.3 hPa 0 mm
22 juin 08:29 15.9°C 97% 0.0 km/h SE 1016.3 hPa 0 mm
22 juin 08:28 15.9°C 97% 0.0 km/h E 1016.3 hPa 0 mm
22 juin 08:27 15.9°C 97% 0.0 km/h ESE 1016.4 hPa 0 mm
22 juin 08:26 15.9°C 97% 0.0 km/h ESE 1016.4 hPa 0 mm
22 juin 08:25 15.9°C 97% 0.0 km/h E 1016.4 hPa 0 mm
22 juin 08:24 15.9°C 97% 0.0 km/h E 1016.4 hPa 0 mm
22 juin 08:23 15.9°C 97% 0.0 km/h E 1016.4 hPa 0 mm
22 juin 08:22 15.9°C 97% 0.0 km/h E 1016.5 hPa 0 mm
22 juin 08:21 15.8°C 97% 0.0 km/h SE 1016.5 hPa 0 mm
22 juin 08:20 15.7°C 97% 0.0 km/h E 1016.4 hPa 0 mm
22 juin 08:19 15.7°C 97% 0.0 km/h NE 1016.4 hPa 0 mm
22 juin 08:18 15.7°C 97% 0.0 km/h SE 1016.3 hPa 0 mm
22 juin 08:17 15.7°C 97% 0.0 km/h E 1016.3 hPa 0 mm
22 juin 08:16 15.7°C 97% 0.0 km/h E 1016.2 hPa 0 mm
22 juin 08:15 15.6°C 97% 0.0 km/h SE 1016.2 hPa 0 mm
22 juin 08:14 15.6°C 97% 0.0 km/h SE 1016.2 hPa 0 mm
22 juin 08:13 15.6°C 97% 0.0 km/h ESE 1016.2 hPa 0 mm
22 juin 08:12 15.5°C 97% 0.0 km/h E 1016.2 hPa 0 mm
22 juin 08:11 15.5°C 97% 0.0 km/h E 1016.2 hPa 0 mm
22 juin 08:10 15.4°C 98% 0.0 km/h E 1016.2 hPa 0 mm
22 juin 08:09 15.4°C 97% 0.0 km/h E 1016.2 hPa 0 mm
22 juin 08:08 15.4°C 97% 0.0 km/h E 1016.2 hPa 0 mm
22 juin 08:07 15.4°C 97% 0.0 km/h SE 1016.3 hPa 0 mm
22 juin 08:06 15.4°C 97% 0.0 km/h E 1016.2 hPa 0 mm
22 juin 08:05 15.4°C 98% 0.0 km/h E 1016.2 hPa 0 mm
22 juin 08:04 15.3°C 98% 0.0 km/h E 1016.2 hPa 0 mm
22 juin 08:03 15.3°C 98% 0.0 km/h E 1016.2 hPa 0 mm
22 juin 08:02 15.3°C 98% 0.0 km/h E 1016.2 hPa 0 mm
22 juin 08:01 15.3°C 98% 0.0 km/h E 1016.2 hPa 0 mm
22 juin 08:00 15.4°C 98% 0.0 km/h ESE 1016.2 hPa 0 mm
22 juin 07:59 15.4°C 98% 0.0 km/h ENE 1016.3 hPa 0 mm
22 juin 07:58 15.4°C 98% 0.0 km/h ESE 1016.3 hPa 0 mm
22 juin 07:57 15.4°C 98% 0.0 km/h E 1016.3 hPa 0 mm
22 juin 07:56 15.4°C 98% 0.0 km/h E 1016.2 hPa 0 mm
22 juin 07:55 15.4°C 97% 0.0 km/h E 1016.3 hPa 0.14 mm
22 juin 07:54 15.4°C 97% 0.0 km/h SE 1016.2 hPa 0.14 mm
22 juin 07:53 15.4°C 97% 0.0 km/h SE 1016.2 hPa 0.14 mm
22 juin 07:52 15.4°C 97% 0.0 km/h S 1016.2 hPa 0 mm
22 juin 07:51 15.4°C 97% 0.0 km/h S 1016.3 hPa 0 mm
22 juin 07:50 15.4°C 97% 0.0 km/h SE 1016.3 hPa 0 mm
22 juin 07:49 15.4°C 97% 0.0 km/h E 1016.3 hPa 0.14 mm
22 juin 07:48 15.4°C 97% 0.0 km/h SE 1016.3 hPa 0 mm
22 juin 07:47 15.4°C 97% 0.0 km/h SE 1016.3 hPa 0 mm
22 juin 07:46 15.4°C 97% 0.0 km/h E 1016.3 hPa 0 mm
22 juin 07:45 15.4°C 97% 0.0 km/h E 1016.3 hPa 0 mm
22 juin 07:44 15.4°C 97% 0.0 km/h ESE 1016.3 hPa 0 mm
22 juin 07:43 15.3°C 97% 0.0 km/h ESE 1016.4 hPa 0 mm
22 juin 07:42 15.3°C 97% 0.0 km/h E 1016.3 hPa 0 mm
22 juin 07:41 15.3°C 97% 0.0 km/h SE 1016.3 hPa 0 mm
22 juin 07:40 15.3°C 97% 0.0 km/h E 1016.3 hPa 0 mm
22 juin 07:39 15.3°C 97% 0.0 km/h SE 1016.3 hPa 0 mm
22 juin 07:38 15.3°C 97% 0.0 km/h S 1016.3 hPa 0 mm
22 juin 07:37 15.3°C 97% 0.0 km/h ESE 1016.2 hPa 0 mm
22 juin 07:36 15.3°C 97% 0.0 km/h S 1016.2 hPa 0 mm
22 juin 07:35 15.3°C 97% 0.0 km/h SE 1016.2 hPa 0 mm
22 juin 07:34 15.3°C 97% 0.0 km/h ENE 1016.3 hPa 0 mm
22 juin 07:33 15.3°C 97% 0.0 km/h SE 1016.3 hPa 0 mm
22 juin 07:32 15.3°C 97% 0.0 km/h ESE 1016.2 hPa 0 mm
22 juin 07:31 15.4°C 97% 0.0 km/h ESE 1016.2 hPa 0 mm
22 juin 07:30 15.4°C 97% 0.0 km/h SE 1016.2 hPa 0 mm
22 juin 07:29 15.4°C 97% 0.0 km/h SE 1016.2 hPa 0 mm
22 juin 07:28 15.4°C 97% 0.0 km/h SSE 1016.3 hPa 0 mm
22 juin 07:27 15.4°C 97% 0.0 km/h SSE 1016.2 hPa 0 mm
22 juin 07:26 15.4°C 97% 0.0 km/h ESE 1016.2 hPa 0 mm
22 juin 07:25 15.4°C 97% 0.0 km/h ESE 1016.2 hPa 0 mm
22 juin 07:24 15.4°C 97% 0.0 km/h E 1016.2 hPa 0 mm
22 juin 07:23 15.4°C 97% 0.0 km/h S 1016.2 hPa 0 mm
22 juin 07:22 15.4°C 97% 0.0 km/h E 1016.2 hPa 0 mm
22 juin 07:21 15.4°C 97% 0.0 km/h E 1016.2 hPa 0 mm
22 juin 07:20 15.4°C 98% 0.0 km/h E 1016.2 hPa 0 mm
22 juin 07:19 15.4°C 98% 0.0 km/h ESE 1016.1 hPa 0 mm
22 juin 07:18 15.2°C 98% 0.0 km/h ESE 1016.2 hPa 0 mm
22 juin 07:17 15.2°C 98% 0.0 km/h SSE 1016.1 hPa 0 mm
22 juin 07:16 15.2°C 98% 0.0 km/h ESE 1016.1 hPa 0 mm
22 juin 07:15 15.2°C 98% 0.0 km/h S 1016.1 hPa 0 mm
22 juin 07:14 15.1°C 98% 0.0 km/h ESE 1016.1 hPa 0 mm
22 juin 07:13 15.1°C 98% 0.0 km/h ESE 1016.0 hPa 0 mm
22 juin 07:12 15.0°C 97% 0.0 km/h SE 1016.0 hPa 0 mm
22 juin 07:11 15.0°C 97% 0.0 km/h SE 1016.0 hPa 0 mm
22 juin 07:10 15.0°C 97% 0.0 km/h E 1015.9 hPa 0 mm
22 juin 07:09 15.0°C 97% 0.0 km/h SE 1015.9 hPa 0 mm
22 juin 07:08 14.9°C 97% 0.0 km/h E 1015.9 hPa 0 mm
22 juin 07:07 14.8°C 97% 0.0 km/h SE 1015.9 hPa 0 mm
22 juin 07:06 14.8°C 97% 0.0 km/h E 1016.0 hPa 0 mm
22 juin 07:05 14.8°C 97% 0.0 km/h E 1016.0 hPa 0 mm
22 juin 07:04 14.8°C 97% 0.0 km/h SE 1015.9 hPa 0 mm
22 juin 07:03 14.8°C 97% 0.0 km/h E 1016.0 hPa 0 mm
22 juin 07:02 14.8°C 97% 0.0 km/h E 1015.9 hPa 0 mm
22 juin 07:01 14.7°C 97% 0.0 km/h ESE 1016.0 hPa 0 mm
22 juin 07:00 14.6°C 97% 0.0 km/h SE 1016.0 hPa 0 mm
22 juin 06:59 14.6°C 97% 0.0 km/h E 1016.0 hPa 0 mm
22 juin 06:58 14.6°C 97% 0.0 km/h E 1016.0 hPa 0 mm
22 juin 06:57 14.5°C 97% 0.0 km/h SE 1016.0 hPa 0 mm
22 juin 06:56 14.5°C 97% 0.0 km/h E 1016.1 hPa 0 mm
22 juin 06:55 14.4°C 97% 0.0 km/h SSE 1016.0 hPa 0 mm
22 juin 06:54 14.3°C 97% 0.0 km/h SE 1016.0 hPa 0 mm
22 juin 06:53 14.3°C 97% 0.0 km/h E 1016.0 hPa 0 mm
22 juin 06:52 14.2°C 97% 0.0 km/h SE 1016.0 hPa 0 mm
22 juin 06:51 14.2°C 97% 0.0 km/h E 1016.1 hPa 0 mm
22 juin 06:50 14.2°C 97% 0.0 km/h SE 1016.1 hPa 0 mm
22 juin 06:49 13.9°C 97% 0.0 km/h E 1016.1 hPa 0 mm
22 juin 06:48 13.9°C 97% 0.0 km/h SE 1016.1 hPa 0 mm
22 juin 06:47 13.9°C 97% 0.0 km/h E 1016.0 hPa 0 mm
22 juin 06:46 13.9°C 97% 0.0 km/h ESE 1016.0 hPa 0 mm
22 juin 06:45 13.9°C 97% 0.0 km/h SE 1016.1 hPa 0 mm
22 juin 06:44 13.9°C 97% 0.0 km/h ENE 1016.1 hPa 0 mm
22 juin 06:43 13.9°C 97% 0.0 km/h E 1016.2 hPa 0 mm
22 juin 06:42 13.9°C 97% 0.0 km/h ESE 1016.2 hPa 0 mm
22 juin 06:41 13.8°C 97% 0.0 km/h E 1016.2 hPa 0 mm
22 juin 06:40 13.8°C 97% 0.0 km/h E 1016.2 hPa 0 mm
22 juin 06:39 13.8°C 97% 0.0 km/h SSE 1016.2 hPa 0 mm
22 juin 06:38 13.8°C 97% 0.0 km/h SSE 1016.1 hPa 0 mm
22 juin 06:37 13.8°C 97% 0.0 km/h S 1016.1 hPa 0 mm
22 juin 06:36 13.8°C 97% 0.0 km/h S 1016.1 hPa 0 mm
22 juin 06:35 13.8°C 97% 0.0 km/h SSE 1016.1 hPa 0 mm
22 juin 06:34 13.8°C 97% 0.0 km/h ENE 1016.1 hPa 0 mm
22 juin 06:33 13.8°C 97% 0.0 km/h ESE 1016.0 hPa 0 mm
22 juin 06:32 13.8°C 97% 0.0 km/h NE 1016.1 hPa 0 mm
22 juin 06:31 13.8°C 97% 0.0 km/h E 1016.1 hPa 0 mm
22 juin 06:30 13.8°C 97% 0.0 km/h E 1016.0 hPa 0 mm
22 juin 06:29 13.8°C 97% 0.0 km/h SE 1015.9 hPa 0 mm
22 juin 06:28 13.8°C 97% 0.0 km/h ENE 1016.0 hPa 0 mm
22 juin 06:27 14.0°C 97% 0.0 km/h NE 1016.0 hPa 0 mm
22 juin 06:26 14.0°C 97% 0.0 km/h SE 1016.0 hPa 0 mm
22 juin 06:25 14.0°C 97% 0.0 km/h SE 1016.0 hPa 0 mm
22 juin 06:24 14.0°C 97% 0.0 km/h ESE 1015.9 hPa 0 mm
22 juin 06:23 14.0°C 97% 0.0 km/h SE 1015.9 hPa 0 mm
22 juin 06:22 14.0°C 97% 0.0 km/h SE 1016.0 hPa 0 mm
22 juin 06:21 14.0°C 97% 0.0 km/h SE 1016.0 hPa 0 mm
22 juin 06:20 14.0°C 97% 0.0 km/h SE 1015.9 hPa 0 mm
22 juin 06:19 13.9°C 97% 0.0 km/h SE 1016.0 hPa 0 mm
22 juin 06:18 13.9°C 97% 0.0 km/h SE 1016.0 hPa 0 mm
22 juin 06:17 13.9°C 97% 0.0 km/h SE 1016.0 hPa 0 mm
22 juin 06:16 13.9°C 97% 0.0 km/h E 1016.0 hPa 0 mm
22 juin 06:15 13.8°C 97% 0.0 km/h E 1016.0 hPa 0 mm
22 juin 06:14 13.8°C 97% 0.0 km/h ESE 1016.1 hPa 0 mm
22 juin 06:13 13.8°C 97% 0.0 km/h SE 1016.1 hPa 0 mm
22 juin 06:12 13.8°C 97% 0.0 km/h SE 1016.1 hPa 0 mm
22 juin 06:11 13.8°C 97% 0.0 km/h E 1016.1 hPa 0 mm
22 juin 06:10 13.8°C 97% 0.0 km/h ESE 1016.1 hPa 0 mm
22 juin 06:09 13.8°C 97% 0.0 km/h E 1016.1 hPa 0 mm
22 juin 06:08 13.8°C 97% 0.0 km/h E 1016.1 hPa 0 mm
22 juin 06:07 13.8°C 97% 0.0 km/h SE 1016.1 hPa 0 mm
22 juin 06:06 13.9°C 97% 0.0 km/h SE 1016.2 hPa 0 mm
22 juin 06:05 13.9°C 97% 0.0 km/h ESE 1016.2 hPa 0 mm
22 juin 06:04 13.9°C 97% 0.0 km/h SE 1016.2 hPa 0 mm
22 juin 06:03 13.9°C 97% 0.0 km/h SE 1016.2 hPa 0 mm
22 juin 06:02 13.9°C 97% 0.0 km/h SE 1016.2 hPa 0 mm
22 juin 06:01 13.9°C 97% 0.0 km/h SE 1016.2 hPa 0 mm
22 juin 06:00 13.9°C 97% 0.0 km/h SSE 1016.2 hPa 0 mm
22 juin 05:59 13.9°C 97% 0.0 km/h E 1016.2 hPa 0 mm
22 juin 05:58 13.9°C 97% 0.0 km/h ESE 1016.2 hPa 0 mm
22 juin 05:57 13.9°C 97% 0.0 km/h ESE 1016.2 hPa 0 mm
22 juin 05:56 13.9°C 97% 0.0 km/h E 1016.3 hPa 0 mm
22 juin 05:55 13.9°C 97% 0.0 km/h E 1016.3 hPa 0 mm
22 juin 05:54 13.9°C 97% 0.0 km/h SE 1016.3 hPa 0 mm
22 juin 05:53 13.8°C 97% 0.0 km/h SE 1016.4 hPa 0 mm
22 juin 05:52 13.8°C 97% 0.0 km/h E 1016.4 hPa 0 mm
22 juin 05:51 13.8°C 97% 0.0 km/h E 1016.4 hPa 0 mm
22 juin 05:50 13.8°C 97% 0.0 km/h NE 1016.4 hPa 0 mm
22 juin 05:49 13.8°C 97% 0.0 km/h E 1016.3 hPa 0 mm
22 juin 05:48 13.8°C 97% 0.0 km/h SE 1016.3 hPa 0 mm
22 juin 05:47 13.9°C 97% 0.0 km/h E 1016.3 hPa 0 mm
22 juin 05:46 13.9°C 97% 0.0 km/h E 1016.2 hPa 0 mm
22 juin 05:45 13.9°C 97% 0.0 km/h ESE 1016.2 hPa 0 mm
22 juin 05:44 13.9°C 97% 0.0 km/h E 1016.2 hPa 0 mm
22 juin 05:43 13.9°C 97% 0.0 km/h E 1016.2 hPa 0 mm
22 juin 05:42 13.9°C 97% 0.0 km/h NE 1016.2 hPa 0 mm
22 juin 05:41 14.1°C 97% 0.0 km/h SSE 1016.2 hPa 0 mm
22 juin 05:40 14.1°C 97% 0.0 km/h E 1016.2 hPa 0 mm
22 juin 05:39 14.1°C 97% 0.0 km/h SE 1016.2 hPa 0 mm
22 juin 05:38 14.1°C 97% 0.0 km/h SE 1016.2 hPa 0 mm
22 juin 05:37 14.1°C 97% 0.0 km/h SE 1016.2 hPa 0 mm
22 juin 05:36 14.1°C 97% 0.0 km/h E 1016.2 hPa 0 mm
22 juin 05:35 14.2°C 97% 0.0 km/h ESE 1016.2 hPa 0 mm
22 juin 05:34 14.2°C 97% 0.0 km/h SE 1016.2 hPa 0 mm
22 juin 05:33 14.3°C 97% 0.0 km/h E 1016.2 hPa 0 mm
22 juin 05:32 14.3°C 97% 0.0 km/h NE 1016.2 hPa 0 mm
22 juin 05:31 14.4°C 97% 0.0 km/h N 1016.2 hPa 0 mm
22 juin 05:30 14.4°C 97% 0.0 km/h N 1016.2 hPa 0 mm
22 juin 05:29 14.4°C 97% 0.0 km/h N 1016.2 hPa 0 mm
22 juin 05:28 14.4°C 97% 0.0 km/h N 1016.2 hPa 0 mm
22 juin 05:27 14.4°C 97% 0.0 km/h N 1016.2 hPa 0 mm
22 juin 05:26 14.4°C 97% 0.0 km/h N 1016.1 hPa 0 mm
22 juin 05:25 14.4°C 97% 0.0 km/h N 1016.2 hPa 0 mm
22 juin 05:24 14.4°C 97% 0.0 km/h SE 1016.2 hPa 0 mm
22 juin 05:23 14.4°C 97% 0.0 km/h NE 1016.2 hPa 0 mm
22 juin 05:22 14.4°C 97% 0.0 km/h ENE 1016.2 hPa 0 mm
22 juin 05:21 14.4°C 97% 0.0 km/h E 1016.2 hPa 0 mm
22 juin 05:20 14.6°C 97% 0.0 km/h NE 1016.2 hPa 0 mm
22 juin 05:19 14.6°C 97% 0.0 km/h SE 1016.2 hPa 0 mm
22 juin 05:18 14.6°C 97% 0.0 km/h E 1016.2 hPa 0 mm
22 juin 05:17 14.6°C 97% 0.0 km/h ESE 1016.2 hPa 0 mm
22 juin 05:16 14.6°C 97% 0.0 km/h NE 1016.3 hPa 0 mm
22 juin 05:15 14.6°C 97% 0.0 km/h ESE 1016.2 hPa 0 mm
22 juin 05:14 14.8°C 97% 0.0 km/h E 1016.2 hPa 0 mm
22 juin 05:13 14.8°C 97% 0.0 km/h E 1016.3 hPa 0 mm
22 juin 05:12 14.8°C 97% 0.0 km/h SE 1016.2 hPa 0 mm
22 juin 05:11 14.8°C 97% 0.0 km/h SE 1016.2 hPa 0 mm
22 juin 05:10 14.8°C 97% 0.0 km/h SE 1016.2 hPa 0 mm
22 juin 05:09 14.8°C 97% 0.0 km/h E 1016.2 hPa 0 mm
22 juin 05:08 14.8°C 97% 0.0 km/h NNE 1016.3 hPa 0 mm
22 juin 05:07 14.9°C 97% 0.0 km/h NNE 1016.3 hPa 0 mm
22 juin 05:06 14.9°C 97% 0.0 km/h NE 1016.3 hPa 0 mm
22 juin 05:05 14.9°C 97% 0.0 km/h ESE 1016.3 hPa 0 mm
22 juin 05:04 14.9°C 97% 0.0 km/h ESE 1016.3 hPa 0 mm
22 juin 05:03 14.9°C 96% 0.0 km/h ESE 1016.3 hPa 0 mm
22 juin 05:02 14.9°C 96% 0.0 km/h ESE 1016.3 hPa 0 mm
22 juin 05:01 15.1°C 96% 0.0 km/h N 1016.4 hPa 0 mm
22 juin 05:00 15.1°C 96% 0.0 km/h N 1016.3 hPa 0 mm
22 juin 04:59 15.0°C 97% 0.0 km/h N 1016.4 hPa 0 mm
22 juin 04:58 15.0°C 97% 0.0 km/h N 1016.3 hPa 0 mm
22 juin 04:57 15.0°C 97% 0.0 km/h N 1016.4 hPa 0 mm
22 juin 04:56 15.0°C 97% 0.0 km/h N 1016.4 hPa 0 mm
22 juin 04:55 14.7°C 97% 0.0 km/h N 1016.4 hPa 0 mm
22 juin 04:54 14.7°C 97% 0.0 km/h NNE 1016.4 hPa 0 mm
22 juin 04:53 14.7°C 97% 0.0 km/h N 1016.4 hPa 0 mm
22 juin 04:52 14.7°C 97% 0.0 km/h N 1016.4 hPa 0 mm
22 juin 04:51 14.7°C 97% 0.0 km/h NNE 1016.4 hPa 0 mm
22 juin 04:50 14.7°C 97% 0.0 km/h NE 1016.5 hPa 0 mm
22 juin 04:49 14.7°C 97% 0.0 km/h NNE 1016.5 hPa 0 mm
22 juin 04:48 14.7°C 97% 0.0 km/h ENE 1016.5 hPa 0 mm
22 juin 04:47 14.7°C 97% 0.0 km/h NE 1016.5 hPa 0 mm
22 juin 04:46 14.7°C 97% 0.0 km/h NE 1016.5 hPa 0 mm
22 juin 04:45 14.7°C 97% 0.0 km/h NE 1016.5 hPa 0 mm
22 juin 04:44 14.7°C 97% 0.0 km/h NE 1016.5 hPa 0 mm
22 juin 04:43 14.7°C 97% 0.0 km/h ENE 1016.5 hPa 0 mm
22 juin 04:42 14.7°C 97% 0.0 km/h NE 1016.5 hPa 0 mm
22 juin 04:41 14.7°C 97% 0.0 km/h NE 1016.5 hPa 0 mm
22 juin 04:40 14.7°C 97% 0.0 km/h ENE 1016.5 hPa 0 mm
22 juin 04:39 14.6°C 97% 0.0 km/h ENE 1016.5 hPa 0 mm
22 juin 04:38 14.6°C 97% 0.0 km/h E 1016.5 hPa 0 mm
22 juin 04:37 14.6°C 97% 0.0 km/h NNE 1016.5 hPa 0 mm
22 juin 04:36 14.6°C 97% 0.0 km/h E 1016.6 hPa 0 mm
22 juin 04:35 14.6°C 97% 0.0 km/h E 1016.5 hPa 0 mm
22 juin 04:34 14.6°C 97% 0.0 km/h E 1016.6 hPa 0 mm
22 juin 04:33 14.5°C 97% 0.0 km/h E 1016.6 hPa 0 mm
22 juin 04:32 14.5°C 97% 0.0 km/h E 1016.6 hPa 0 mm
22 juin 04:31 14.5°C 97% 0.0 km/h E 1016.6 hPa 0 mm
22 juin 04:30 14.5°C 97% 0.0 km/h SE 1016.5 hPa 0 mm
22 juin 04:29 14.5°C 97% 0.0 km/h E 1016.5 hPa 0 mm
22 juin 04:28 14.7°C 97% 0.0 km/h E 1016.5 hPa 0 mm
22 juin 04:27 14.7°C 97% 0.0 km/h ENE 1016.5 hPa 0 mm
22 juin 04:26 14.7°C 97% 0.0 km/h NE 1016.5 hPa 0 mm
22 juin 04:25 14.7°C 97% 0.0 km/h NNE 1016.5 hPa 0 mm
22 juin 04:24 14.8°C 97% 0.0 km/h NNE 1016.5 hPa 0 mm
22 juin 04:23 14.8°C 97% 0.0 km/h NNE 1016.5 hPa 0 mm
22 juin 04:22 14.8°C 97% 0.0 km/h N 1016.5 hPa 0 mm
22 juin 04:21 14.8°C 97% 0.0 km/h NNE 1016.5 hPa 0 mm
22 juin 04:20 14.8°C 97% 0.0 km/h NNE 1016.5 hPa 0 mm
22 juin 04:19 14.8°C 97% 0.0 km/h N 1016.5 hPa 0 mm
22 juin 04:18 14.8°C 97% 0.0 km/h N 1016.5 hPa 0 mm
22 juin 04:17 14.8°C 97% 0.0 km/h N 1016.5 hPa 0 mm
22 juin 04:16 14.7°C 97% 0.0 km/h N 1016.5 hPa 0 mm
22 juin 04:15 14.7°C 97% 0.0 km/h NNE 1016.4 hPa 0 mm
22 juin 04:14 14.7°C 97% 0.0 km/h N 1016.5 hPa 0 mm
22 juin 04:13 14.7°C 97% 0.0 km/h N 1016.5 hPa 0 mm
22 juin 04:12 14.7°C 97% 0.0 km/h NNE 1016.5 hPa 0 mm
22 juin 04:11 14.7°C 97% 0.0 km/h N 1016.6 hPa 0 mm
22 juin 04:10 14.7°C 97% 0.0 km/h NNE 1016.6 hPa 0 mm
22 juin 04:09 14.7°C 97% 0.0 km/h NNE 1016.6 hPa 0 mm
22 juin 04:08 14.7°C 97% 0.0 km/h N 1016.6 hPa 0 mm
22 juin 04:07 14.6°C 97% 0.0 km/h N 1016.7 hPa 0 mm
22 juin 04:06 14.6°C 97% 0.0 km/h N 1016.7 hPa 0 mm
22 juin 04:05 14.3°C 97% 0.0 km/h N 1016.7 hPa 0 mm
22 juin 04:04 14.3°C 97% 0.0 km/h N 1016.7 hPa 0 mm
22 juin 04:03 14.3°C 97% 0.0 km/h N 1016.7 hPa 0 mm
22 juin 04:02 14.3°C 97% 0.0 km/h N 1016.7 hPa 0 mm
22 juin 04:01 14.3°C 97% 0.0 km/h N 1016.7 hPa 0 mm
22 juin 04:00 14.3°C 97% 0.0 km/h N 1016.7 hPa 0 mm
22 juin 03:59 14.3°C 97% 0.0 km/h N 1016.7 hPa 0 mm
22 juin 03:58 14.3°C 97% 0.0 km/h N 1016.8 hPa 0 mm
22 juin 03:57 14.3°C 97% 0.0 km/h N 1016.7 hPa 0 mm
22 juin 03:56 14.1°C 97% 0.0 km/h N 1016.8 hPa 0 mm
22 juin 03:55 14.1°C 97% 0.0 km/h N 1016.7 hPa 0 mm
22 juin 03:54 14.1°C 97% 0.0 km/h N 1016.7 hPa 0 mm
22 juin 03:53 14.1°C 97% 0.0 km/h N 1016.8 hPa 0 mm
22 juin 03:52 14.1°C 97% 0.0 km/h N 1016.8 hPa 0 mm
22 juin 03:51 13.9°C 97% 0.0 km/h ENE 1016.7 hPa 0 mm
22 juin 03:50 13.9°C 97% 0.0 km/h N 1016.8 hPa 0 mm
22 juin 03:49 14.0°C 97% 0.0 km/h E 1016.8 hPa 0 mm
22 juin 03:48 14.0°C 97% 0.0 km/h E 1016.8 hPa 0 mm
22 juin 03:47 13.9°C 97% 0.0 km/h ESE 1016.8 hPa 0 mm
22 juin 03:46 13.8°C 97% 0.0 km/h ESE 1016.8 hPa 0 mm
22 juin 03:45 13.8°C 97% 0.0 km/h NE 1016.9 hPa 0 mm
22 juin 03:44 13.8°C 97% 0.0 km/h NNE 1016.9 hPa 0 mm
22 juin 03:43 13.8°C 97% 0.0 km/h ENE 1016.9 hPa 0 mm
22 juin 03:42 13.8°C 97% 0.0 km/h ENE 1016.9 hPa 0 mm
22 juin 03:41 13.6°C 97% 0.0 km/h ENE 1016.9 hPa 0 mm
22 juin 03:40 13.6°C 97% 0.0 km/h N 1016.9 hPa 0 mm
22 juin 03:39 13.6°C 97% 0.0 km/h N 1017.0 hPa 0 mm
22 juin 03:38 13.6°C 97% 0.0 km/h NE 1017.0 hPa 0 mm
22 juin 03:37 13.5°C 97% 0.0 km/h ESE 1017.0 hPa 0 mm
22 juin 03:36 13.5°C 97% 0.0 km/h SE 1017.0 hPa 0 mm
22 juin 03:35 13.5°C 97% 0.0 km/h ENE 1017.0 hPa 0 mm
22 juin 03:34 13.4°C 97% 0.0 km/h SE 1017.0 hPa 0 mm
22 juin 03:33 13.4°C 97% 0.0 km/h E 1017.0 hPa 0 mm
22 juin 03:32 13.4°C 97% 0.0 km/h NE 1017.0 hPa 0 mm
22 juin 03:31 13.4°C 97% 0.0 km/h N 1017.0 hPa 0 mm
22 juin 03:30 13.4°C 97% 0.0 km/h NNE 1017.0 hPa 0.14 mm
22 juin 03:29 13.4°C 97% 0.0 km/h NNE 1017.0 hPa 0 mm
22 juin 03:28 13.3°C 97% 0.0 km/h N 1017.0 hPa 0 mm
22 juin 03:27 13.3°C 97% 0.0 km/h NNE 1017.0 hPa 0 mm
22 juin 03:26 13.3°C 97% 0.0 km/h NNE 1017.0 hPa 0 mm
22 juin 03:25 13.1°C 97% 0.0 km/h NNE 1017.0 hPa 0 mm
22 juin 03:24 13.1°C 97% 0.0 km/h N 1017.1 hPa 0 mm
22 juin 03:23 13.1°C 97% 0.0 km/h N 1017.1 hPa 0 mm
22 juin 03:22 13.1°C 97% 0.0 km/h N 1017.1 hPa 0 mm
22 juin 03:21 13.1°C 97% 0.0 km/h N 1017.2 hPa 0 mm
22 juin 03:20 13.1°C 97% 0.0 km/h N 1017.2 hPa 0 mm
22 juin 03:19 13.0°C 97% 0.0 km/h N 1017.1 hPa 0 mm
22 juin 03:18 13.0°C 97% 0.0 km/h N 1017.1 hPa 0 mm
22 juin 03:17 13.0°C 97% 0.0 km/h N 1017.2 hPa 0 mm
22 juin 03:16 13.0°C 97% 0.0 km/h N 1017.1 hPa 0 mm
22 juin 03:15 13.0°C 97% 0.0 km/h N 1017.2 hPa 0 mm
22 juin 03:14 12.9°C 97% 0.0 km/h E 1017.2 hPa 0 mm
22 juin 03:13 12.9°C 97% 0.0 km/h SE 1017.3 hPa 0 mm
22 juin 03:12 12.9°C 97% 0.0 km/h NNE 1017.2 hPa 0 mm
22 juin 03:11 12.9°C 97% 0.0 km/h N 1017.3 hPa 0 mm
22 juin 03:10 12.9°C 97% 0.0 km/h E 1017.3 hPa 0 mm
22 juin 03:09 12.9°C 97% 0.0 km/h E 1017.3 hPa 0 mm
22 juin 03:08 12.9°C 97% 0.0 km/h E 1017.4 hPa 0 mm
22 juin 03:07 12.9°C 97% 0.0 km/h NNE 1017.3 hPa 0 mm
22 juin 03:06 12.9°C 97% 0.0 km/h NE 1017.4 hPa 0 mm
22 juin 03:05 12.9°C 97% 0.0 km/h SE 1017.5 hPa 0 mm
22 juin 03:04 12.9°C 97% 0.0 km/h E 1017.7 hPa 0 mm
22 juin 03:03 12.9°C 97% 0.0 km/h ENE 1017.9 hPa 0 mm
22 juin 03:02 12.8°C 97% 0.0 km/h ESE 1017.9 hPa 0 mm
22 juin 03:01 12.8°C 97% 0.0 km/h ENE 1017.9 hPa 0 mm
22 juin 03:00 12.8°C 97% 0.0 km/h E 1018.0 hPa 0 mm
22 juin 02:59 12.9°C 97% 0.0 km/h SE 1018.0 hPa 0 mm
22 juin 02:58 12.9°C 97% 0.0 km/h E 1017.9 hPa 0 mm
22 juin 02:57 12.9°C 97% 0.0 km/h NE 1018.0 hPa 0 mm
22 juin 02:56 12.9°C 97% 0.0 km/h NE 1018.0 hPa 0 mm
22 juin 02:55 12.9°C 97% 0.0 km/h ESE 1017.9 hPa 0 mm
22 juin 02:54 12.9°C 97% 0.0 km/h SE 1017.9 hPa 0 mm
22 juin 02:53 12.9°C 97% 0.0 km/h SE 1017.9 hPa 0 mm
22 juin 02:52 12.9°C 97% 0.0 km/h NE 1017.9 hPa 0 mm
22 juin 02:51 12.9°C 97% 0.0 km/h NE 1017.9 hPa 0 mm
22 juin 02:50 13.0°C 97% 0.0 km/h SE 1017.9 hPa 0 mm
22 juin 02:49 13.0°C 97% 0.0 km/h ESE 1017.9 hPa 0 mm
22 juin 02:48 13.0°C 97% 0.0 km/h SE 1017.9 hPa 0 mm
22 juin 02:47 13.0°C 97% 0.0 km/h ESE 1017.9 hPa 0 mm
22 juin 02:46 13.0°C 97% 0.0 km/h E 1017.9 hPa 0 mm
22 juin 02:45 13.1°C 97% 0.0 km/h E 1017.9 hPa 0 mm
22 juin 02:44 13.1°C 97% 0.0 km/h ESE 1017.9 hPa 0 mm
22 juin 02:43 13.1°C 97% 0.0 km/h E 1018.0 hPa 0 mm
22 juin 02:42 13.1°C 97% 0.0 km/h SE 1018.0 hPa 0 mm
22 juin 02:41 13.2°C 97% 0.0 km/h NE 1018.0 hPa 0 mm
22 juin 02:40 13.2°C 97% 0.0 km/h E 1018.0 hPa 0 mm
22 juin 02:39 13.2°C 97% 0.0 km/h SE 1018.0 hPa 0 mm
22 juin 02:38 13.2°C 97% 0.0 km/h SE 1018.0 hPa 0 mm
22 juin 02:37 13.2°C 97% 0.0 km/h ENE 1018.0 hPa 0 mm
22 juin 02:36 13.2°C 97% 0.0 km/h ESE 1018.0 hPa 0 mm
22 juin 02:35 13.2°C 97% 0.0 km/h E 1018.0 hPa 0 mm
22 juin 02:34 13.2°C 97% 0.0 km/h E 1018.0 hPa 0 mm
22 juin 02:33 13.2°C 97% 0.0 km/h E 1018.0 hPa 0 mm
22 juin 02:32 13.1°C 97% 0.0 km/h E 1018.0 hPa 0 mm
22 juin 02:31 13.1°C 97% 0.0 km/h E 1018.0 hPa 0 mm
22 juin 02:30 13.1°C 97% 0.0 km/h ESE 1017.9 hPa 0 mm
22 juin 02:29 13.1°C 97% 0.0 km/h SE 1017.9 hPa 0 mm
22 juin 02:28 13.1°C 97% 0.0 km/h ESE 1017.9 hPa 0 mm
22 juin 02:27 13.2°C 97% 0.0 km/h SE 1017.9 hPa 0 mm
22 juin 02:26 13.2°C 97% 0.0 km/h E 1017.9 hPa 0 mm
22 juin 02:25 13.2°C 97% 0.0 km/h SE 1017.9 hPa 0 mm
22 juin 02:24 13.3°C 97% 0.0 km/h E 1017.9 hPa 0 mm
22 juin 02:23 13.3°C 97% 0.0 km/h SE 1017.9 hPa 0 mm
22 juin 02:22 13.3°C 97% 0.0 km/h E 1017.9 hPa 0 mm
22 juin 02:21 13.3°C 97% 0.0 km/h ESE 1017.9 hPa 0 mm
22 juin 02:20 13.3°C 97% 0.0 km/h E 1017.9 hPa 0 mm
22 juin 02:19 13.3°C 97% 0.0 km/h E 1017.9 hPa 0 mm
22 juin 02:18 13.3°C 97% 0.0 km/h SE 1017.9 hPa 0 mm
22 juin 02:17 13.3°C 97% 0.0 km/h S 1017.9 hPa 0 mm
22 juin 02:16 13.3°C 96% 0.0 km/h SE 1017.9 hPa 0 mm
22 juin 02:15 13.3°C 96% 0.0 km/h SSE 1017.9 hPa 0 mm
22 juin 02:14 13.4°C 96% 0.0 km/h SSE 1017.9 hPa 0 mm
22 juin 02:13 13.4°C 96% 0.0 km/h NE 1017.9 hPa 0 mm
22 juin 02:12 13.4°C 97% 0.0 km/h NNE 1017.9 hPa 0 mm
22 juin 02:11 13.4°C 96% 0.0 km/h N 1017.9 hPa 0 mm
22 juin 02:10 13.4°C 96% 0.0 km/h N 1017.9 hPa 0 mm
22 juin 02:09 13.4°C 96% 0.0 km/h N 1017.9 hPa 0 mm
22 juin 02:08 13.6°C 96% 0.0 km/h N 1017.9 hPa 0 mm
22 juin 02:07 13.6°C 96% 0.0 km/h N 1017.9 hPa 0 mm
22 juin 02:06 13.6°C 96% 0.0 km/h NNE 1017.9 hPa 0 mm
22 juin 02:05 13.7°C 96% 0.0 km/h N 1017.9 hPa 0 mm
22 juin 02:04 13.7°C 96% 0.0 km/h N 1017.9 hPa 0 mm
22 juin 02:03 13.8°C 96% 0.0 km/h N 1017.8 hPa 0 mm
22 juin 02:02 13.8°C 96% 0.0 km/h NNE 1017.9 hPa 0 mm
22 juin 02:01 13.8°C 97% 0.0 km/h N 1017.9 hPa 0 mm
22 juin 02:00 13.7°C 97% 0.0 km/h N 1017.9 hPa 0 mm
22 juin 01:59 13.6°C 96% 0.0 km/h NNE 1017.8 hPa 0 mm
22 juin 01:58 13.6°C 96% 0.0 km/h NNE 1017.9 hPa 0 mm
22 juin 01:57 13.6°C 96% 0.0 km/h N 1017.9 hPa 0 mm
22 juin 01:56 13.6°C 96% 0.0 km/h N 1017.9 hPa 0 mm
22 juin 01:55 13.8°C 96% 0.0 km/h N 1017.8 hPa 0 mm
22 juin 01:54 13.8°C 96% 0.0 km/h N 1017.8 hPa 0 mm
22 juin 01:53 13.8°C 96% 0.0 km/h N 1017.8 hPa 0 mm
22 juin 01:52 13.9°C 96% 0.0 km/h N 1017.7 hPa 0 mm
22 juin 01:51 13.9°C 96% 0.0 km/h N 1017.7 hPa 0 mm
22 juin 01:50 14.0°C 96% 0.0 km/h N 1017.6 hPa 0 mm
22 juin 01:49 13.9°C 96% 0.0 km/h N 1017.6 hPa 0 mm
22 juin 01:48 13.9°C 96% 0.0 km/h N 1017.6 hPa 0 mm
22 juin 01:47 13.9°C 96% 0.0 km/h N 1017.6 hPa 0 mm
22 juin 01:46 13.8°C 96% 0.0 km/h N 1017.6 hPa 0 mm
22 juin 01:45 13.9°C 96% 0.0 km/h N 1017.6 hPa 0 mm
22 juin 01:44 13.9°C 96% 0.0 km/h N 1017.4 hPa 0 mm
22 juin 01:43 13.8°C 96% 0.0 km/h N 1017.3 hPa 0 mm
22 juin 01:42 13.9°C 96% 0.0 km/h NE 1017.3 hPa 0 mm
22 juin 01:41 13.9°C 96% 0.0 km/h E 1017.4 hPa 0 mm
22 juin 01:40 13.9°C 96% 0.0 km/h SE 1017.3 hPa 0 mm
22 juin 01:39 13.9°C 96% 0.0 km/h SE 1017.3 hPa 0 mm
22 juin 01:38 14.0°C 96% 0.0 km/h E 1017.4 hPa 0 mm
22 juin 01:37 14.0°C 96% 0.0 km/h N 1017.4 hPa 0 mm
22 juin 01:36 14.0°C 96% 0.0 km/h NNE 1017.4 hPa 0 mm
22 juin 01:35 14.0°C 96% 0.0 km/h N 1017.4 hPa 0 mm
22 juin 01:34 14.0°C 96% 0.0 km/h N 1017.4 hPa 0 mm
22 juin 01:33 14.0°C 96% 0.0 km/h N 1017.4 hPa 0 mm
22 juin 01:32 14.1°C 96% 0.0 km/h N 1017.4 hPa 0 mm
22 juin 01:31 14.2°C 96% 0.0 km/h N 1017.4 hPa 0 mm
22 juin 01:30 14.2°C 96% 0.0 km/h E 1017.5 hPa 0 mm
22 juin 01:29 14.2°C 96% 0.0 km/h E 1017.5 hPa 0 mm
22 juin 01:28 14.2°C 96% 0.0 km/h N 1017.5 hPa 0 mm
22 juin 01:27 14.2°C 96% 0.0 km/h N 1017.5 hPa 0 mm
22 juin 01:26 14.2°C 96% 0.0 km/h N 1017.5 hPa 0 mm
22 juin 01:25 14.3°C 96% 0.0 km/h E 1017.6 hPa 0 mm
22 juin 01:24 14.3°C 96% 0.0 km/h E 1017.6 hPa 0 mm
22 juin 01:23 14.3°C 96% 0.0 km/h ENE 1017.6 hPa 0 mm
22 juin 01:22 14.3°C 96% 0.0 km/h NNE 1017.6 hPa 0 mm
22 juin 01:21 14.4°C 96% 0.0 km/h NNE 1017.6 hPa 0 mm
22 juin 01:20 14.4°C 96% 0.0 km/h NNE 1017.6 hPa 0 mm
22 juin 01:19 14.5°C 96% 0.0 km/h SE 1017.6 hPa 0 mm
22 juin 01:18 14.5°C 96% 0.0 km/h SE 1017.5 hPa 0 mm
22 juin 01:17 14.5°C 96% 0.0 km/h E 1017.6 hPa 0 mm
22 juin 01:16 14.5°C 96% 0.0 km/h ESE 1017.6 hPa 0 mm
22 juin 01:15 14.5°C 96% 0.0 km/h E 1017.6 hPa 0 mm
22 juin 01:14 14.6°C 96% 0.0 km/h ESE 1017.6 hPa 0 mm
22 juin 01:13 14.6°C 96% 0.0 km/h N 1017.6 hPa 0 mm
22 juin 01:12 14.6°C 96% 0.0 km/h N 1017.6 hPa 0 mm
22 juin 01:11 14.7°C 96% 0.0 km/h N 1017.5 hPa 0 mm
22 juin 01:10 14.7°C 96% 0.0 km/h N 1017.5 hPa 0 mm
22 juin 01:09 14.7°C 96% 0.0 km/h N 1017.5 hPa 0 mm
22 juin 01:08 14.7°C 96% 0.0 km/h NNE 1017.5 hPa 0 mm
22 juin 01:07 14.7°C 96% 0.0 km/h NNE 1017.5 hPa 0 mm
22 juin 01:06 14.7°C 96% 0.0 km/h NNE 1017.6 hPa 0 mm
22 juin 01:05 14.7°C 96% 0.0 km/h NNE 1017.5 hPa 0 mm
22 juin 01:04 14.7°C 96% 0.0 km/h NNE 1017.6 hPa 0 mm
22 juin 01:03 14.7°C 96% 0.0 km/h N 1017.6 hPa 0 mm
22 juin 01:02 14.7°C 96% 0.0 km/h N 1017.6 hPa 0 mm
22 juin 01:01 14.7°C 96% 0.0 km/h N 1017.6 hPa 0 mm
22 juin 01:00 14.7°C 96% 0.0 km/h N 1017.5 hPa 0 mm
22 juin 00:59 14.7°C 96% 0.0 km/h NNE 1017.5 hPa 0 mm
22 juin 00:58 14.8°C 96% 0.0 km/h NNE 1017.6 hPa 0 mm
22 juin 00:57 14.8°C 96% 0.0 km/h NNE 1017.6 hPa 0 mm
22 juin 00:56 14.8°C 96% 0.0 km/h N 1017.5 hPa 0 mm
22 juin 00:55 14.8°C 96% 0.0 km/h NNE 1017.5 hPa 0 mm
22 juin 00:54 14.9°C 96% 0.0 km/h N 1017.5 hPa 0 mm
22 juin 00:53 14.9°C 96% 0.0 km/h N 1017.5 hPa 0 mm
22 juin 00:52 14.9°C 96% 0.0 km/h NNE 1017.5 hPa 0 mm
22 juin 00:51 14.9°C 96% 0.0 km/h N 1017.4 hPa 0 mm
22 juin 00:50 14.9°C 96% 0.0 km/h N 1017.4 hPa 0 mm
22 juin 00:49 14.9°C 96% 0.0 km/h N 1017.4 hPa 0 mm
22 juin 00:48 14.9°C 96% 0.0 km/h N 1017.5 hPa 0 mm
22 juin 00:47 14.8°C 96% 0.0 km/h N 1017.5 hPa 0 mm
22 juin 00:46 14.8°C 96% 0.0 km/h N 1017.4 hPa 0 mm
22 juin 00:45 14.8°C 96% 0.0 km/h N 1017.5 hPa 0 mm
22 juin 00:44 14.8°C 96% 0.0 km/h N 1017.5 hPa 0 mm
22 juin 00:43 14.8°C 96% 0.0 km/h NE 1017.5 hPa 0 mm
22 juin 00:42 15.0°C 96% 0.0 km/h NE 1017.5 hPa 0 mm
22 juin 00:41 15.0°C 96% 0.0 km/h ESE 1017.5 hPa 0 mm
22 juin 00:40 15.2°C 96% 0.0 km/h SE 1017.6 hPa 0 mm
22 juin 00:39 15.2°C 96% 0.0 km/h E 1017.6 hPa 0 mm
22 juin 00:38 15.2°C 96% 0.0 km/h NNE 1017.6 hPa 0 mm
22 juin 00:37 15.2°C 96% 0.0 km/h N 1017.6 hPa 0 mm
22 juin 00:36 15.2°C 96% 0.0 km/h N 1017.6 hPa 0 mm
22 juin 00:35 15.1°C 96% 0.0 km/h N 1017.5 hPa 0 mm
22 juin 00:34 15.1°C 96% 0.0 km/h NNE 1017.6 hPa 0 mm
22 juin 00:33 15.2°C 96% 0.0 km/h N 1017.5 hPa 0 mm
22 juin 00:32 15.2°C 96% 0.0 km/h NNE 1017.5 hPa 0 mm
22 juin 00:31 15.2°C 96% 0.0 km/h NNE 1017.6 hPa 0 mm
22 juin 00:30 15.2°C 96% 0.0 km/h N 1017.6 hPa 0 mm
22 juin 00:29 15.2°C 96% 0.0 km/h N 1017.6 hPa 0 mm
22 juin 00:28 15.2°C 96% 0.0 km/h N 1017.6 hPa 0 mm
22 juin 00:27 15.1°C 96% 0.0 km/h N 1017.6 hPa 0 mm
22 juin 00:26 15.1°C 96% 0.0 km/h N 1017.5 hPa 0 mm
22 juin 00:25 14.9°C 96% 0.0 km/h N 1017.5 hPa 0 mm
22 juin 00:24 14.9°C 96% 0.0 km/h N 1017.6 hPa 0 mm
22 juin 00:23 14.9°C 96% 0.0 km/h N 1017.6 hPa 0 mm
22 juin 00:22 14.9°C 96% 0.0 km/h N 1017.6 hPa 0 mm
22 juin 00:21 14.9°C 96% 0.0 km/h N 1017.6 hPa 0 mm
22 juin 00:20 14.9°C 96% 0.0 km/h N 1017.7 hPa 0 mm
22 juin 00:19 14.9°C 96% 0.0 km/h N 1017.6 hPa 0 mm
22 juin 00:18 14.9°C 96% 0.0 km/h N 1017.6 hPa 0 mm
22 juin 00:17 14.8°C 96% 0.0 km/h NNE 1017.6 hPa 0 mm
22 juin 00:16 14.8°C 96% 0.0 km/h N 1017.7 hPa 0 mm
22 juin 00:15 14.8°C 96% 0.0 km/h NNE 1017.6 hPa 0 mm
22 juin 00:14 14.9°C 96% 0.0 km/h SE 1017.6 hPa 0 mm
22 juin 00:13 14.9°C 96% 0.0 km/h NNE 1017.7 hPa 0 mm
22 juin 00:12 14.9°C 96% 0.0 km/h N 1017.7 hPa 0 mm
22 juin 00:11 14.9°C 96% 0.0 km/h N 1017.7 hPa 0 mm
22 juin 00:10 14.8°C 96% 0.0 km/h N 1017.7 hPa 0 mm
22 juin 00:09 14.8°C 96% 0.0 km/h N 1017.7 hPa 0 mm
22 juin 00:08 14.8°C 96% 0.0 km/h N 1017.7 hPa 0 mm
22 juin 00:07 14.8°C 96% 0.0 km/h N 1017.7 hPa 0 mm
22 juin 00:06 14.8°C 96% 0.0 km/h N 1017.8 hPa 0 mm
22 juin 00:05 14.8°C 96% 0.0 km/h NE 1017.7 hPa 0 mm
22 juin 00:04 14.7°C 96% 0.0 km/h N 1017.8 hPa 0 mm
22 juin 00:03 14.7°C 96% 0.0 km/h ENE 1017.8 hPa 0 mm
22 juin 00:02 14.7°C 96% 0.0 km/h E 1017.8 hPa 0 mm
22 juin 00:01 14.7°C 96% 0.0 km/h E 1017.8 hPa 0 mm
22 juin 00:00 14.7°C 96% 0.0 km/h E 1017.7 hPa 0 mm
21 juin 23:59 14.7°C 96% 0.0 km/h E 1017.7 hPa 0 mm
21 juin 23:58 14.6°C 96% 0.0 km/h SE 1017.8 hPa 0 mm
21 juin 23:57 14.6°C 96% 0.0 km/h E 1017.8 hPa 0 mm
21 juin 23:56 14.6°C 96% 0.0 km/h N 1017.7 hPa 0 mm
21 juin 23:55 14.6°C 96% 0.0 km/h NE 1017.7 hPa 0 mm
21 juin 23:54 14.6°C 96% 0.0 km/h E 1017.7 hPa 0 mm
21 juin 23:53 14.6°C 96% 0.0 km/h E 1017.7 hPa 0 mm
21 juin 23:52 14.5°C 96% 0.0 km/h ENE 1017.8 hPa 0 mm
21 juin 23:51 14.6°C 96% 0.0 km/h SE 1017.8 hPa 0 mm
21 juin 23:50 14.6°C 96% 0.0 km/h E 1017.7 hPa 0 mm
21 juin 23:49 14.6°C 96% 0.0 km/h ESE 1017.7 hPa 0 mm
21 juin 23:48 14.5°C 95% 0.0 km/h SE 1017.7 hPa 0 mm
21 juin 23:47 14.6°C 95% 0.0 km/h SE 1017.7 hPa 0 mm
21 juin 23:46 14.6°C 95% 0.0 km/h E 1017.7 hPa 0 mm
21 juin 23:45 14.7°C 95% 0.0 km/h NNE 1017.7 hPa 0 mm
21 juin 23:44 14.7°C 95% 0.0 km/h N 1017.6 hPa 0 mm
21 juin 23:43 14.7°C 95% 0.0 km/h NE 1017.6 hPa 0 mm
21 juin 23:42 14.8°C 95% 0.0 km/h NNE 1017.6 hPa 0 mm
21 juin 23:41 14.9°C 95% 0.0 km/h N 1017.6 hPa 0 mm
21 juin 23:40 14.8°C 95% 0.0 km/h N 1017.6 hPa 0 mm
21 juin 23:39 14.8°C 95% 0.0 km/h N 1017.7 hPa 0 mm
21 juin 23:38 14.8°C 96% 0.0 km/h N 1017.7 hPa 0 mm
21 juin 23:37 14.8°C 95% 0.0 km/h N 1017.7 hPa 0 mm
21 juin 23:36 14.7°C 96% 0.0 km/h N 1017.7 hPa 0 mm
21 juin 23:35 14.7°C 96% 0.0 km/h N 1017.7 hPa 0 mm
21 juin 23:34 14.6°C 96% 0.0 km/h NNE 1017.7 hPa 0 mm
21 juin 23:33 14.5°C 96% 0.0 km/h NNE 1017.7 hPa 0 mm
21 juin 23:32 14.5°C 96% 0.0 km/h NNE 1017.7 hPa 0 mm
21 juin 23:31 14.5°C 96% 0.0 km/h N 1017.7 hPa 0 mm
21 juin 23:30 14.4°C 96% 0.0 km/h N 1017.6 hPa 0 mm
21 juin 23:29 14.4°C 96% 0.0 km/h N 1017.6 hPa 0 mm
21 juin 23:28 14.3°C 96% 0.0 km/h N 1017.6 hPa 0 mm
21 juin 23:27 14.3°C 96% 0.0 km/h N 1017.5 hPa 0 mm
21 juin 23:26 14.3°C 96% 0.0 km/h N 1017.6 hPa 0 mm
21 juin 23:25 14.3°C 96% 0.0 km/h N 1017.6 hPa 0 mm
21 juin 23:24 14.3°C 96% 0.0 km/h N 1017.6 hPa 0 mm
21 juin 23:23 14.4°C 96% 0.0 km/h N 1017.5 hPa 0 mm
21 juin 23:22 14.4°C 96% 0.0 km/h N 1017.5 hPa 0 mm
21 juin 23:21 14.4°C 96% 0.0 km/h N 1017.5 hPa 0 mm
21 juin 23:20 14.4°C 96% 0.0 km/h N 1017.4 hPa 0 mm
21 juin 23:19 14.3°C 96% 0.0 km/h N 1017.5 hPa 0 mm
21 juin 23:18 14.3°C 96% 0.0 km/h N 1017.5 hPa 0 mm
21 juin 23:17 14.3°C 96% 0.0 km/h N 1017.4 hPa 0 mm
21 juin 23:16 14.2°C 96% 0.0 km/h N 1017.3 hPa 0 mm
21 juin 23:15 14.1°C 96% 0.0 km/h N 1017.4 hPa 0 mm
21 juin 23:14 14.1°C 96% 0.0 km/h N 1017.4 hPa 0 mm
21 juin 23:13 14.0°C 96% 0.0 km/h N 1017.3 hPa 0 mm
21 juin 23:12 13.8°C 96% 0.0 km/h N 1017.3 hPa 0 mm
21 juin 23:11 13.8°C 95% 0.0 km/h N 1017.3 hPa 0 mm
21 juin 23:10 13.9°C 95% 0.0 km/h N 1017.3 hPa 0 mm
21 juin 23:09 13.8°C 95% 0.0 km/h N 1017.3 hPa 0 mm
21 juin 23:08 13.9°C 95% 0.0 km/h N 1017.2 hPa 0 mm
21 juin 23:07 13.8°C 95% 0.0 km/h N 1017.3 hPa 0 mm
21 juin 23:06 13.9°C 95% 0.0 km/h E 1017.3 hPa 0 mm
21 juin 23:05 13.9°C 95% 0.0 km/h E 1017.3 hPa 0 mm
21 juin 23:04 14.0°C 95% 0.0 km/h SE 1017.3 hPa 0 mm
21 juin 23:03 14.0°C 95% 0.0 km/h E 1017.2 hPa 0 mm
21 juin 23:02 14.0°C 95% 0.0 km/h ESE 1017.1 hPa 0 mm
21 juin 23:01 14.0°C 95% 0.0 km/h E 1017.1 hPa 0 mm
21 juin 23:00 14.0°C 95% 0.0 km/h E 1017.1 hPa 0 mm
21 juin 22:59 14.0°C 95% 0.0 km/h NE 1017.0 hPa 0 mm
21 juin 22:58 14.1°C 95% 0.0 km/h N 1016.9 hPa 0 mm
21 juin 22:57 14.0°C 95% 0.0 km/h N 1016.9 hPa 0 mm
21 juin 22:56 14.0°C 95% 0.0 km/h N 1016.9 hPa 0 mm
21 juin 22:55 14.0°C 95% 0.0 km/h N 1016.9 hPa 0 mm
21 juin 22:54 14.0°C 95% 0.0 km/h N 1016.9 hPa 0 mm
21 juin 22:53 14.1°C 95% 0.0 km/h NNE 1016.9 hPa 0 mm
21 juin 22:52 14.1°C 95% 0.0 km/h E 1017.0 hPa 0 mm
21 juin 22:51 14.2°C 95% 0.0 km/h SE 1017.0 hPa 0 mm
21 juin 22:50 14.5°C 95% 0.0 km/h E 1017.0 hPa 0 mm
21 juin 22:49 14.5°C 95% 0.0 km/h E 1017.0 hPa 0 mm
21 juin 22:48 14.5°C 95% 0.0 km/h ENE 1016.9 hPa 0 mm
21 juin 22:47 14.5°C 95% 0.0 km/h ENE 1016.9 hPa 0 mm
21 juin 22:46 14.6°C 95% 0.0 km/h ENE 1016.9 hPa 0 mm
21 juin 22:45 14.5°C 95% 0.0 km/h ENE 1016.9 hPa 0 mm
21 juin 22:44 14.5°C 95% 0.0 km/h ENE 1016.9 hPa 0 mm
21 juin 22:43 14.6°C 95% 0.0 km/h ENE 1016.9 hPa 0 mm
21 juin 22:42 14.4°C 95% 0.0 km/h NNE 1016.9 hPa 0 mm
21 juin 22:41 14.4°C 95% 0.0 km/h N 1016.9 hPa 0 mm
21 juin 22:40 14.4°C 95% 0.0 km/h N 1016.9 hPa 0 mm
21 juin 22:39 14.5°C 95% 0.0 km/h N 1016.8 hPa 0 mm
21 juin 22:38 14.5°C 95% 0.0 km/h N 1016.8 hPa 0 mm
21 juin 22:37 14.6°C 95% 0.0 km/h N 1016.8 hPa 0 mm
21 juin 22:36 14.6°C 95% 0.0 km/h N 1016.8 hPa 0 mm
21 juin 22:35 14.6°C 95% 0.0 km/h N 1016.7 hPa 0 mm
21 juin 22:34 14.6°C 95% 0.0 km/h N 1016.7 hPa 0 mm
21 juin 22:33 14.6°C 95% 0.0 km/h N 1016.8 hPa 0 mm
21 juin 22:32 14.5°C 95% 0.0 km/h N 1016.8 hPa 0 mm
21 juin 22:31 14.5°C 95% 0.0 km/h N 1016.8 hPa 0 mm
21 juin 22:30 14.5°C 95% 0.0 km/h N 1016.8 hPa 0 mm
21 juin 22:29 14.5°C 95% 0.0 km/h N 1016.8 hPa 0 mm
21 juin 22:28 14.6°C 95% 0.0 km/h N 1016.8 hPa 0 mm
21 juin 22:27 14.6°C 95% 0.0 km/h N 1016.8 hPa 0 mm
21 juin 22:26 14.6°C 95% 0.0 km/h N 1016.8 hPa 0 mm
21 juin 22:25 14.6°C 95% 0.0 km/h N 1016.8 hPa 0 mm
21 juin 22:24 14.6°C 94% 0.0 km/h SE 1016.8 hPa 0 mm
21 juin 22:23 14.6°C 94%